Latitude: N 50° 09' 49" Longitude: W 05° 11' 53" Elevation: 168m ASL

There are 19 visitors online

Adverts

<- Previous Day | Today | Next Day ->

All Data for 11 January 2018

Time
A - D
Temp
A - D
Dew Point
A - D
Humidity
A - D
Pressure
A - D
Wind
A - D
Wind Dir Gust
A - D
Rain Rate
A - D
Rain Total
00:00 9.0 8.9 99 1004.6 5.4 N 9.2 0.0 0.0
00:02 9.0 8.9 99 1004.8 5.4 N 9.2 0.0 0.0
00:03 9.0 8.9 99 1004.8 5.4 N 9.2 0.0 0.0
00:05 9.0 8.9 99 1004.9 4.5 N 9.2 0.0 0.0
00:06 9.0 8.9 99 1004.9 6.0 NE 9.2 0.0 0.0
00:07 9.0 8.9 99 1005.0 9.8 NE 9.8 0.0 0.0
00:09 9.0 8.9 99 1005.0 7.6 NNE 9.8 0.0 0.0
00:10 9.0 8.9 99 1004.9 9.8 NE 9.8 0.0 0.0
00:12 9.0 8.9 99 1005.0 8.3 N 9.8 0.0 0.0
00:13 9.1 9.0 99 1004.9 9.2 N 9.8 0.0 0.0
00:14 9.0 8.9 99 1005.1 7.6 NE 9.8 0.0 0.0
00:15 9.0 8.9 99 1005.2 6.0 N 9.8 0.0 0.0
00:17 9.0 8.9 99 1005.0 13.0 N 13.0 0.0 0.0
00:20 9.1 9.0 99 1005.1 4.5 NE 13.0 0.0 0.0
00:21 9.0 8.9 99 1005.0 5.4 NE 13.0 0.0 0.0
00:22 9.1 9.0 99 1005.1 4.5 N 13.0 0.0 0.0
00:23 9.1 9.0 99 1005.0 3.8 NE 13.0 0.0 0.0
00:24 9.0 8.9 99 1005.1 6.9 NE 13.0 0.0 0.0
00:25 9.1 9.0 99 1005.2 4.5 NE 13.0 0.0 0.0
00:27 9.0 8.9 99 1005.3 6.9 NNE 13.0 0.0 0.0
00:29 9.1 9.0 99 1005.3 5.4 NE 11.4 0.0 0.0
00:30 9.1 9.0 99 1005.5 8.3 NE 11.4 0.0 0.0
00:32 9.1 9.0 99 1005.4 6.0 NE 13.6 0.0 0.0
00:35 9.1 9.0 99 1005.3 6.0 NE 13.6 0.0 0.0
00:38 9.1 9.0 99 1005.4 8.3 N 13.6 0.0 0.0
00:41 9.1 9.0 99 1005.4 11.4 NW 13.0 0.0 0.0
00:42 9.1 9.0 99 1005.6 11.4 N 13.0 0.0 0.0
00:43 9.1 9.0 99 1005.4 6.0 N 13.0 0.0 0.0
00:44 9.1 9.0 99 1005.5 9.8 NE 13.0 0.0 0.0
00:45 9.1 9.0 99 1005.5 7.6 N 13.0 0.0 0.0
00:46 9.1 9.0 99 1005.5 6.9 NE 13.0 0.0 0.0
00:47 9.1 9.0 99 1005.6 9.2 NE 13.0 0.0 0.0
00:48 9.1 9.0 99 1005.7 5.4 N 13.0 0.0 0.0
00:49 9.1 9.0 99 1005.7 5.4 NE 13.0 0.0 0.0
00:50 9.1 9.0 99 1005.6 6.9 N 11.4 0.0 0.0
00:52 9.0 8.9 99 1005.6 6.0 N 11.4 0.0 0.0
00:53 9.0 8.9 99 1005.8 9.8 W 9.8 0.0 0.0
00:54 9.0 8.9 99 1005.8 9.8 NE 9.8 0.0 0.0
00:55 9.1 9.0 99 1005.9 7.6 E 9.8 0.0 0.0
00:56 9.0 8.9 99 1005.8 7.6 NE 9.8 0.0 0.0
00:57 9.0 8.9 99 1005.8 9.2 N 9.8 0.0 0.0
00:58 9.0 8.9 99 1005.8 7.6 NW 9.8 0.0 0.0
00:59 9.0 8.9 99 1005.8 9.2 N 9.8 0.0 0.0
01:00 9.0 8.9 99 1006.0 6.0 NE 9.8 0.0 0.0
01:01 9.0 8.9 99 1006.1 6.0 NE 9.8 0.0 0.0
01:02 9.0 8.9 99 1006.1 6.0 NE 9.8 0.0 0.0
01:03 9.0 8.9 99 1006.1 6.0 NE 9.8 0.0 0.0
01:04 8.9 8.8 99 1006.2 6.9 N 9.2 0.0 0.0
01:05 8.9 8.8 99 1006.0 7.6 NE 9.2 0.0 0.0
01:06 8.9 8.8 99 1006.1 7.6 NE 9.2 0.0 0.0
01:07 8.8 8.7 99 1006.1 6.9 N 9.2 0.0 0.0
01:08 8.8 8.7 99 1006.0 6.9 N 9.2 0.0 0.0
01:10 8.8 8.7 99 1006.0 10.7 NE 10.7 0.0 0.0
01:11 8.8 8.7 99 1006.0 5.4 NE 10.7 0.0 0.0
01:12 8.8 8.7 99 1006.1 7.6 NE 10.7 0.0 0.0
01:13 8.8 8.7 99 1006.0 7.6 N 10.7 0.0 0.0
01:14 8.7 8.6 99 1006.1 3.8 N 10.7 0.0 0.0
01:15 8.7 8.6 99 1006.1 6.9 NE 10.7 0.0 0.0
01:16 8.7 8.6 99 1006.1 6.9 N 10.7 0.0 0.0
01:17 8.7 8.6 99 1006.0 13.0 NE 13.0 0.0 0.0
01:18 8.7 8.6 99 1006.1 7.6 N 13.0 0.0 0.0
01:19 8.7 8.6 99 1006.0 11.4 NE 13.0 0.0 0.0
01:20 8.7 8.6 99 1006.0 7.6 N 13.0 0.0 0.0
01:21 8.6 8.5 99 1006.1 9.8 N 13.0 0.0 0.0
01:22 8.6 8.5 99 1006.2 7.6 NE 13.0 0.0 0.0
01:23 8.6 8.5 99 1006.2 6.9 NE 13.0 0.0 0.0
01:25 8.6 8.5 99 1006.2 6.0 N 13.0 0.0 0.0
01:26 8.6 8.5 99 1006.1 6.9 NE 13.0 0.0 0.0
01:27 8.5 8.4 99 1006.2 5.4 N 13.0 0.0 0.0
01:28 8.5 8.4 99 1006.3 5.4 NE 11.4 0.0 0.0
01:29 8.5 8.4 99 1006.2 11.4 NE 11.4 0.0 0.0
01:30 8.5 8.4 99 1006.4 6.9 N 11.4 0.0 0.0
01:31 8.4 8.3 99 1006.3 8.3 NE 11.4 0.0 0.0
01:32 8.4 8.3 99 1006.6 7.6 NE 12.1 0.0 0.0
01:33 8.4 8.3 99 1006.4 11.4 NE 12.1 0.0 0.0
01:34 8.4 8.3 99 1006.6 5.4 NW 12.1 0.0 0.0
01:35 8.3 8.2 99 1006.7 8.3 NE 12.1 0.0 0.0
01:36 8.3 8.2 99 1006.6 11.4 NE 12.1 0.0 0.0
01:37 8.3 8.2 99 1006.7 8.3 N 12.1 0.0 0.0
01:38 8.3 8.2 99 1006.5 5.4 NE 12.1 0.0 0.0
01:39 8.3 8.2 99 1006.5 12.1 N 12.1 0.0 0.0
01:40 8.3 8.2 99 1006.7 9.8 NE 12.1 0.0 0.0
01:41 8.3 8.2 99 1006.7 6.0 NE 12.1 0.0 0.0
01:43 8.2 8.1 99 1006.8 8.3 NE 12.1 0.0 0.0
01:44 8.2 8.1 99 1006.7 7.6 NE 12.1 0.0 0.0
01:45 8.2 8.1 99 1006.7 4.5 N 12.1 0.0 0.0
01:46 8.1 8.0 99 1006.8 5.4 N 12.1 0.0 0.0
01:47 8.1 8.0 99 1006.8 7.6 NE 12.1 0.0 0.0
01:48 8.1 8.0 99 1006.8 9.8 N 12.1 0.0 0.0
01:49 8.1 8.0 99 1006.8 11.4 N 12.1 0.0 0.0
01:50 8.0 7.9 99 1006.9 9.2 NE 11.4 0.0 0.0
01:51 8.1 8.0 99 1007.1 8.3 N 11.4 0.0 0.0
01:52 8.0 7.9 99 1007.0 6.0 NE 11.4 0.0 0.0
01:53 8.0 7.9 99 1007.1 6.0 NE 11.4 0.0 0.0
01:54 8.0 7.9 99 1007.1 8.3 NE 11.4 0.0 0.0
01:55 8.0 7.9 99 1007.0 7.6 N 11.4 0.0 0.0
01:56 8.0 7.9 99 1007.1 7.6 NE 11.4 0.0 0.0
01:58 7.9 7.8 99 1007.1 9.8 N 11.4 0.0 0.0
01:59 7.9 7.8 99 1007.1 8.3 NE 11.4 0.0 0.0
02:00 7.9 7.8 99 1007.3 4.5 N 9.8 0.0 0.0
02:01 7.9 7.8 99 1007.2 4.5 N 9.8 0.0 0.0
02:02 7.9 7.8 99 1007.5 4.5 N 9.8 0.0 0.0
02:03 7.9 7.8 99 1007.3 4.5 N 9.8 0.0 0.0
02:04 7.9 7.8 99 1007.3 4.5 N 9.8 0.0 0.0
02:05 7.8 7.7 99 1007.4 6.9 N 9.8 0.0 0.0
02:06 7.7 7.6 99 1007.6 6.0 NE 9.8 0.0 0.0
02:07 7.7 7.6 99 1007.4 5.4 NE 9.8 0.0 0.0
02:08 7.7 7.6 99 1007.3 5.4 N 8.3 0.0 0.0
02:10 7.7 7.6 99 1007.4 4.5 N 6.9 0.0 0.0
02:11 7.6 7.5 99 1007.5 6.9 NE 6.9 0.0 0.0
02:12 7.6 7.5 99 1007.7 2.2 NE 6.9 0.0 0.0
02:13 7.6 7.5 99 1007.7 5.4 NE 6.9 0.0 0.0
02:14 7.5 7.4 99 1007.7 6.0 N 6.9 0.0 0.0
02:15 7.5 7.4 99 1007.8 4.5 NE 6.9 0.0 0.0
02:16 7.5 7.4 99 1007.7 4.5 N 6.9 0.0 0.0
02:17 7.5 7.4 99 1007.8 5.4 NE 6.9 0.0 0.0
02:18 7.5 7.4 99 1007.7 6.9 NE 6.9 0.0 0.0
02:19 7.5 7.4 99 1007.9 6.9 N 6.9 0.0 0.0
02:20 7.4 7.3 99 1007.9 6.9 NE 6.9 0.0 0.0
02:21 7.4 7.3 99 1007.8 5.4 N 6.9 0.0 0.0
02:22 7.4 7.3 99 1008.0 7.6 NE 7.6 0.0 0.0
02:23 7.4 7.3 99 1008.0 6.9 NE 7.6 0.0 0.0
02:24 7.4 7.3 99 1007.9 7.6 N 7.6 0.0 0.0
02:25 7.4 7.3 99 1008.2 6.9 NE 7.6 0.0 0.0
02:27 7.4 7.3 99 1008.2 6.0 N 7.6 0.0 0.0
02:28 7.4 7.3 99 1008.2 5.4 NE 7.6 0.0 0.0
02:29 7.4 7.3 99 1008.2 7.6 NE 7.6 0.0 0.0
02:30 7.4 7.3 99 1008.3 6.0 N 7.6 0.0 0.0
02:31 7.3 7.2 99 1008.2 4.5 N 7.6 0.0 0.0
02:32 7.3 7.2 99 1008.3 5.4 NE 7.6 0.0 0.0
02:33 7.3 7.2 99 1008.4 6.9 N 7.6 0.0 0.0
02:34 7.3 7.2 99 1008.3 6.9 NE 7.6 0.0 0.0
02:35 7.3 7.2 99 1008.4 5.4 NE 7.6 0.0 0.0
02:36 7.3 7.2 99 1008.5 3.8 N 7.6 0.0 0.0
02:37 7.3 7.2 99 1008.3 4.5 NE 7.6 0.0 0.0
02:38 7.3 7.2 99 1008.5 4.5 N 7.6 0.0 0.0
02:39 7.3 7.2 99 1008.5 6.9 N 6.9 0.0 0.0
02:40 7.3 7.2 99 1008.5 7.6 N 7.6 0.0 0.0
02:41 7.3 7.2 99 1008.5 5.4 N 7.6 0.0 0.0
02:42 7.3 7.2 99 1008.4 6.0 NE 7.6 0.0 0.0
02:44 7.3 7.2 99 1008.5 6.0 E 7.6 0.0 0.0
02:45 7.3 7.2 99 1008.6 6.9 NW 7.6 0.0 0.0
02:46 7.3 7.2 99 1008.4 5.4 NE 7.6 0.0 0.0
02:47 7.3 7.2 99 1008.6 6.0 NE 7.6 0.0 0.0
02:48 7.3 7.2 99 1008.6 5.4 NE 7.6 0.0 0.0
02:49 7.2 7.1 99 1008.6 4.5 NE 7.6 0.0 0.0
02:50 7.2 7.1 99 1008.6 5.4 NE 7.6 0.0 0.0
02:51 7.2 7.1 99 1008.6 6.0 N 7.6 0.0 0.0
02:52 7.2 7.1 99 1008.9 1.6 N 7.6 0.0 0.0
02:53 7.2 7.1 99 1008.9 5.4 NE 7.6 0.0 0.0
02:54 7.1 7.0 99 1008.9 4.5 NE 7.6 0.0 0.0
02:55 7.1 7.0 99 1008.9 9.8 NE 9.8 0.0 0.0
02:56 7.1 7.0 99 1009.0 8.3 NE 9.8 0.0 0.0
02:57 7.0 6.9 99 1008.8 7.6 N 9.8 0.0 0.0
02:58 7.0 6.9 99 1009.0 5.4 NE 9.8 0.0 0.0
02:59 7.0 6.9 99 1009.0 6.0 NE 9.8 0.0 0.0
03:00 7.0 6.9 99 1009.0 6.0 NE 9.8 0.0 0.0
03:01 7.0 6.9 99 1009.1 6.0 NE 9.8 0.0 0.0
03:02 7.0 6.9 99 1009.1 6.0 NE 9.8 0.0 0.0
03:03 7.0 6.9 99 1008.9 6.0 NE 9.8 0.0 0.0
03:04 7.0 6.9 99 1009.0 6.0 NE 9.8 0.0 0.0
03:06 6.9 6.8 99 1009.2 5.4 N 8.3 0.0 0.0
03:07 6.8 6.7 99 1009.2 5.4 N 7.6 0.0 0.0
03:09 6.8 6.7 99 1009.3 6.0 N 7.6 0.0 0.0
03:10 6.8 6.7 99 1009.3 5.4 NE 7.6 0.0 0.0
03:11 6.8 6.7 99 1009.2 4.5 NE 7.6 0.0 0.0
03:12 6.7 6.6 99 1009.3 5.4 N 7.6 0.0 0.0
03:13 6.7 6.6 99 1009.2 4.5 N 7.6 0.0 0.0
03:14 6.7 6.6 99 1009.4 4.5 NE 7.6 0.0 0.0
03:15 6.7 6.6 99 1009.3 4.5 N 7.6 0.0 0.0
03:16 6.6 6.5 99 1009.4 3.8 N 7.6 0.0 0.0
03:17 6.6 6.5 99 1009.5 4.5 N 7.6 0.0 0.0
03:18 6.6 6.5 99 1009.5 3.1 N 7.6 0.0 0.0
03:19 6.6 6.5 99 1009.5 4.5 N 7.6 0.0 0.0
03:20 6.5 6.4 99 1009.5 2.2 N 7.6 0.0 0.0
03:21 6.5 6.4 99 1009.5 2.2 N 6.9 0.0 0.0
03:22 6.5 6.4 99 1009.6 4.5 N 6.9 0.0 0.0
03:23 6.5 6.4 99 1009.7 4.5 N 6.9 0.0 0.0
03:24 6.5 6.4 99 1009.5 2.2 N 6.9 0.0 0.0
03:25 6.4 6.3 99 1009.7 3.1 N 6.9 0.0 0.0
03:27 6.4 6.3 99 1009.7 4.5 N 4.5 0.0 0.0
03:28 6.3 6.2 99 1009.9 3.1 N 4.5 0.0 0.0
03:29 6.3 6.2 99 1009.8 3.1 N 4.5 0.0 0.0
03:30 6.3 6.2 99 1009.9 4.5 N 4.5 0.0 0.0
03:31 6.3 6.2 99 1010.0 5.4 N 5.4 0.0 0.0
03:32 6.3 6.2 99 1009.7 5.4 NW 5.4 0.0 0.0
03:33 6.3 6.2 99 1009.9 5.4 NW 5.4 0.0 0.0
03:34 6.2 6.1 99 1010.1 3.8 N 5.4 0.0 0.0
03:35 6.2 6.1 99 1010.1 5.4 N 5.4 0.0 0.0
03:37 6.2 6.1 99 1009.9 6.0 N 6.0 0.0 0.0
03:38 6.1 6.0 99 1010.1 3.8 N 6.0 0.0 0.0
03:39 6.1 6.0 99 1010.1 3.8 N 6.0 0.0 0.0
03:40 6.1 6.0 99 1010.1 3.8 N 6.0 0.0 0.0
03:41 6.1 6.0 99 1010.2 3.8 NE 6.0 0.0 0.0
03:42 6.1 6.0 99 1010.2 4.5 N 6.0 0.0 0.0
03:43 6.1 6.0 99 1010.2 3.1 N 6.0 0.0 0.0
03:44 6.1 6.0 99 1010.2 3.1 N 6.0 0.0 0.0
03:45 6.0 5.9 99 1010.2 2.2 N 6.0 0.0 0.0
03:46 6.0 5.9 99 1010.4 3.8 N 6.0 0.0 0.0
03:47 6.0 5.9 99 1010.3 1.6 N 4.5 0.0 0.0
03:48 6.0 5.9 99 1010.3 3.1 N 4.5 0.0 0.0
03:49 6.0 5.9 99 1010.5 3.8 N 4.5 0.0 0.0
03:51 5.9 5.8 99 1010.4 3.1 N 4.5 0.0 0.0
03:52 5.9 5.8 99 1010.5 2.2 N 4.5 0.0 0.0
03:53 5.9 5.8 99 1010.5 3.8 N 3.8 0.0 0.0
03:54 5.9 5.8 99 1010.4 3.8 N 3.8 0.0 0.0
03:55 5.8 5.7 99 1010.5 3.8 N 3.8 0.0 0.0
03:56 5.8 5.7 99 1010.6 2.2 N 3.8 0.0 0.0
03:57 5.8 5.7 99 1010.5 3.1 N 3.8 0.0 0.0
03:58 5.8 5.7 99 1010.7 3.8 N 3.8 0.0 0.0
03:59 5.7 5.6 99 1010.7 2.2 N 3.8 0.0 0.0
04:00 5.7 5.6 99 1010.6 3.8 N 3.8 0.0 0.0
04:01 5.7 5.6 99 1010.7 3.8 N 3.8 0.0 0.0
04:02 5.7 5.6 99 1010.8 3.8 N 3.8 0.0 0.0
04:03 5.7 5.6 99 1010.8 3.8 N 3.8 0.0 0.0
04:04 5.7 5.6 99 1010.7 3.8 N 3.8 0.0 0.0
04:06 5.6 5.5 99 1010.7 3.1 N 3.8 0.0 0.0
04:07 5.6 5.5 99 1010.9 2.2 N 3.8 0.0 0.0
04:08 5.6 5.5 99 1010.7 5.4 NE 5.4 0.0 0.0
04:10 5.5 5.4 99 1010.7 3.1 NE 5.4 0.0 0.0
04:11 5.5 5.4 99 1010.9 3.8 NE 5.4 0.0 0.0
04:12 5.5 5.4 99 1010.9 2.2 N 5.4 0.0 0.0
04:13 5.5 5.4 99 1010.9 3.8 N 5.4 0.0 0.0
04:14 5.5 5.4 99 1010.9 1.6 N 5.4 0.0 0.0
04:15 5.5 5.4 99 1010.8 2.2 N 5.4 0.0 0.0
04:16 5.5 5.4 99 1010.9 2.2 N 5.4 0.0 0.0
04:17 5.5 5.4 99 1010.9 2.2 N 5.4 0.0 0.0
04:18 5.4 5.3 99 1011.0 2.2 N 5.4 0.0 0.0
04:19 5.4 5.3 99 1011.0 1.6 N 3.8 0.0 0.0
04:20 5.4 5.3 99 1011.1 2.2 N 3.8 0.0 0.0
04:21 5.4 5.3 99 1011.0 1.6 N 3.8 0.0 0.0
04:23 5.4 5.3 99 1011.1 1.6 N 2.2 0.0 0.0
04:24 5.3 5.2 99 1011.0 1.6 N 2.2 0.0 0.0
04:25 5.3 5.2 99 1011.0 2.2 N 2.2 0.0 0.0
04:27 5.3 5.2 99 1011.0 1.6 N 2.2 0.0 0.0
04:28 5.2 5.1 99 1011.1 3.1 N 3.1 0.0 0.0
04:29 5.2 5.1 99 1011.1 3.1 N 3.1 0.0 0.0
04:31 5.2 5.1 99 1011.1 3.1 N 3.1 0.0 0.0
04:32 5.2 5.1 99 1011.2 2.2 N 3.1 0.0 0.0
04:34 5.1 5.0 99 1011.1 2.2 N 3.1 0.0 0.0
04:35 5.1 5.0 99 1011.1 2.2 N 3.1 0.0 0.0
04:36 5.1 5.0 99 1011.3 3.1 N 3.1 0.0 0.0
04:37 5.1 5.0 99 1011.2 1.6 N 3.1 0.0 0.0
04:38 5.1 5.0 99 1011.4 2.2 N 3.1 0.0 0.0
04:39 5.0 4.9 99 1011.4 1.6 N 3.1 0.0 0.0
04:40 5.0 4.9 99 1011.5 3.1 N 3.1 0.0 0.0
04:41 5.0 4.9 99 1011.6 2.2 N 3.1 0.0 0.0
04:42 5.0 4.9 99 1011.6 2.2 N 3.1 0.0 0.0
04:43 5.0 4.9 99 1011.7 1.6 N 3.1 0.0 0.0
04:44 5.0 4.9 99 1011.7 1.6 N 3.1 0.0 0.0
04:45 4.9 4.8 99 1011.6 1.6 N 3.1 0.0 0.0
04:46 4.9 4.8 99 1011.8 0.7 N 3.1 0.0 0.0
04:47 4.9 4.8 99 1011.8 2.2 N 3.1 0.0 0.0
04:48 4.9 4.8 99 1011.8 0.7 N 3.1 0.0 0.0
04:49 4.9 4.8 99 1011.7 0.7 N 3.1 0.0 0.0
04:51 4.9 4.8 99 1011.8 1.6 N 2.2 0.0 0.0
04:52 4.9 4.8 99 1011.7 1.6 N 2.2 0.0 0.0
04:53 4.9 4.8 99 1011.8 1.6 N 2.2 0.0 0.0
04:54 4.8 4.7 99 1011.9 3.8 N 3.8 0.0 0.0
04:55 4.8 4.7 99 1011.9 2.2 N 3.8 0.0 0.0
04:56 4.8 4.7 99 1012.0 1.6 N 3.8 0.0 0.0
04:57 4.8 4.7 99 1012.0 0.7 N 3.8 0.0 0.0
04:58 4.8 4.7 99 1012.0 2.2 N 3.8 0.0 0.0
04:59 4.8 4.7 99 1012.0 2.2 N 3.8 0.0 0.0
05:00 4.7 4.6 99 1011.9 1.6 N 3.8 0.0 0.0
05:01 4.7 4.6 99 1012.0 1.6 N 3.8 0.0 0.0
05:02 4.7 4.6 99 1012.0 1.6 N 3.8 0.0 0.0
05:03 4.7 4.6 99 1012.1 1.6 N 3.8 0.0 0.0
05:04 4.7 4.6 99 1012.2 1.6 N 2.2 0.0 0.0
05:05 4.7 4.6 99 1012.1 1.6 N 2.2 0.0 0.0
05:07 4.7 4.6 99 1012.2 1.6 N 2.2 0.0 0.0
05:08 4.7 4.6 99 1012.1 1.6 N 2.2 0.0 0.0
05:10 4.6 4.5 99 1012.0 1.6 N 3.1 0.0 0.0
05:11 4.6 4.5 99 1012.2 1.6 N 3.1 0.0 0.0
05:12 4.6 4.5 99 1012.2 0.7 N 3.1 0.0 0.0
05:13 4.6 4.5 99 1012.1 1.6 N 3.1 0.0 0.0
05:14 4.6 4.5 99 1012.1 2.2 N 3.1 0.0 0.0
05:15 4.5 4.4 99 1012.1 2.2 N 3.1 0.0 0.0
05:16 4.5 4.4 99 1012.2 2.2 N 3.1 0.0 0.0
05:17 4.5 4.4 99 1012.2 2.2 N 3.1 0.0 0.0
05:18 4.5 4.4 99 1012.1 1.6 N 3.1 0.0 0.0
05:19 4.5 4.4 99 1012.2 1.6 N 3.1 0.0 0.0
05:20 4.4 4.3 99 1012.3 0.7 N 2.2 0.0 0.0
05:22 4.5 4.4 99 1012.0 0.7 N 2.2 0.0 0.0
05:23 4.4 4.3 99 1012.2 1.6 N 2.2 0.0 0.0
05:24 4.5 4.4 99 1012.2 0.7 N 2.2 0.0 0.0
05:25 4.4 4.3 99 1012.2 1.6 N 2.2 0.0 0.0
05:26 4.4 4.3 99 1012.3 2.2 N 2.2 0.0 0.0
05:27 4.4 4.3 99 1012.3 2.2 N 2.2 0.0 0.0
05:28 4.4 4.3 99 1012.4 1.6 N 2.2 0.0 0.0
05:29 4.4 4.3 99 1012.4 2.2 N 2.2 0.0 0.0
05:30 4.4 4.3 99 1012.3 0.7 N 2.2 0.0 0.0
05:31 4.4 4.3 99 1012.5 0.7 N 2.2 0.0 0.0
05:32 4.4 4.3 99 1012.6 0.7 N 2.2 0.0 0.0
05:33 4.4 4.3 99 1012.5 0.0 N 2.2 0.0 0.0
05:34 4.3 4.2 99 1012.6 0.7 N 2.2 0.0 0.0
05:35 4.3 4.2 99 1012.6 1.6 N 2.2 0.0 0.0
05:36 4.3 4.2 99 1012.6 2.2 N 2.2 0.0 0.0
05:37 4.3 4.2 99 1012.7 1.6 N 2.2 0.0 0.0
05:39 4.3 4.2 99 1012.6 1.6 N 2.2 0.0 0.0
05:40 4.3 4.2 99 1012.7 2.2 N 2.2 0.0 0.0
05:41 4.2 4.1 99 1012.7 2.2 N 2.2 0.0 0.0
05:42 4.2 4.1 99 1012.7 1.6 N 2.2 0.0 0.0
05:43 4.2 4.1 99 1012.8 1.6 N 2.2 0.0 0.0
05:44 4.2 4.1 99 1012.7 2.2 N 2.2 0.0 0.0
05:45 4.2 4.1 99 1012.7 2.2 N 2.2 0.0 0.0
05:46 4.1 4.0 99 1012.8 1.6 N 2.2 0.0 0.0
05:47 4.1 4.0 99 1012.8 2.2 N 2.2 0.0 0.0
05:48 4.1 4.0 99 1012.8 2.2 N 2.2 0.0 0.0
05:49 4.1 4.0 99 1012.9 1.6 N 2.2 0.0 0.0
05:50 4.1 4.0 99 1012.9 2.2 N 2.2 0.0 0.0
05:51 4.1 4.0 99 1012.9 3.1 N 3.1 0.0 0.0
05:52 4.0 3.9 99 1012.9 3.1 N 3.1 0.0 0.0
05:54 4.0 3.9 99 1013.0 1.6 N 3.1 0.0 0.0
05:55 4.0 3.9 99 1012.9 2.2 N 3.1 0.0 0.0
05:56 4.0 3.9 99 1013.0 2.2 N 3.1 0.0 0.0
05:57 4.0 3.9 99 1013.1 2.2 N 3.1 0.0 0.0
05:58 4.0 3.9 99 1013.0 1.6 N 3.1 0.0 0.0
05:59 3.9 3.8 99 1013.1 1.6 N 3.1 0.0 0.0
06:00 3.9 3.8 99 1013.2 3.1 N 3.1 0.0 0.0
06:01 3.9 3.8 99 1013.0 3.1 N 3.1 0.0 0.0
06:02 3.9 3.8 99 1013.2 3.1 N 3.1 0.0 0.0
06:03 3.9 3.8 99 1013.2 3.1 N 3.1 0.0 0.0
06:04 3.9 3.8 99 1013.2 3.1 N 3.1 0.0 0.0
06:05 3.9 3.8 99 1013.2 3.1 N 3.1 0.0 0.0
06:07 3.9 3.8 99 1013.4 3.1 N 3.1 0.0 0.0
06:08 3.9 3.8 99 1013.3 0.7 N 3.1 0.0 0.0
06:10 3.7 3.6 99 1013.4 1.6 N 3.1 0.0 0.0
06:11 3.9 3.8 99 1013.4 1.6 N 3.1 0.0 0.0
06:12 3.9 3.8 99 1013.6 2.2 N 3.1 0.0 0.0
06:13 3.9 3.8 99 1013.5 1.6 N 3.1 0.0 0.0
06:14 3.8 3.7 99 1013.5 1.6 N 3.1 0.0 0.0
06:15 3.8 3.7 99 1013.6 0.7 N 3.1 0.0 0.0
06:16 3.8 3.7 99 1013.7 1.6 N 3.1 0.0 0.0
06:17 3.8 3.7 99 1013.7 1.6 N 3.1 0.0 0.0
06:18 3.8 3.7 99 1013.6 1.6 N 2.2 0.0 0.0
06:19 3.8 3.7 99 1013.7 2.2 N 2.2 0.0 0.0
06:20 3.7 3.6 99 1013.6 2.2 N 2.2 0.0 0.0
06:22 3.7 3.6 99 1013.7 1.6 N 2.2 0.0 0.0
06:23 3.7 3.6 99 1013.6 2.2 N 2.2 0.0 0.0
06:24 3.7 3.6 99 1013.6 2.2 N 2.2 0.0 0.0
06:25 3.6 3.5 99 1013.7 2.2 N 2.2 0.0 0.0
06:26 3.6 3.5 99 1013.7 2.2 N 2.2 0.0 0.0
06:27 3.7 3.6 99 1013.8 3.1 N 3.1 0.0 0.0
06:28 3.7 3.6 99 1013.7 3.8 N 3.8 0.0 0.0
06:29 3.7 3.6 99 1013.8 3.1 N 3.8 0.0 0.0
06:30 3.7 3.6 99 1013.8 3.1 N 3.8 0.0 0.0
06:31 3.7 3.6 99 1013.9 2.2 N 3.8 0.0 0.0
06:32 3.6 3.5 99 1014.0 1.6 N 3.8 0.0 0.0
06:33 3.7 3.6 99 1013.9 1.6 N 3.8 0.0 0.0
06:34 3.7 3.6 99 1014.0 1.6 N 3.8 0.0 0.0
06:35 3.7 3.6 99 1013.9 1.6 N 3.8 0.0 0.0
06:36 3.7 3.6 99 1014.1 2.2 N 3.8 0.0 0.0
06:38 3.7 3.6 99 1014.1 2.2 N 3.8 0.0 0.0
06:39 3.6 3.5 99 1014.0 2.2 N 3.1 0.0 0.0
06:40 3.7 3.6 99 1014.2 3.1 N 3.1 0.0 0.0
06:41 3.6 3.5 99 1014.2 3.1 N 3.1 0.0 0.0
06:42 3.6 3.5 99 1014.2 3.1 N 3.1 0.0 0.0
06:43 3.6 3.5 99 1014.4 3.1 N 3.1 0.0 0.0
06:44 3.6 3.5 99 1014.2 3.8 NE 3.8 0.0 0.0
06:45 3.6 3.5 99 1014.3 3.8 NE 3.8 0.0 0.0
06:46 3.6 3.5 99 1014.2 3.8 N 3.8 0.0 0.0
06:47 3.6 3.5 99 1014.3 3.8 N 3.8 0.0 0.0
06:48 3.6 3.5 99 1014.2 3.1 N 4.5 0.0 0.0
06:49 3.5 3.4 99 1014.5 3.8 N 4.5 0.0 0.0
06:50 3.7 3.6 99 1014.4 3.1 N 4.5 0.0 0.0
06:51 3.7 3.6 99 1014.4 2.2 N 4.5 0.0 0.0
06:53 3.7 3.6 99 1014.4 2.2 N 4.5 0.0 0.0
06:54 3.6 3.5 99 1014.6 3.1 N 4.5 0.0 0.0
06:55 3.7 3.6 99 1014.6 2.2 N 4.5 0.0 0.0
06:56 3.7 3.6 99 1014.6 1.6 N 4.5 0.0 0.0
06:57 3.7 3.6 99 1014.7 2.2 N 4.5 0.0 0.0
06:58 3.7 3.6 99 1014.8 2.2 N 4.5 0.0 0.0
06:59 3.7 3.6 99 1014.8 2.2 N 3.8 0.0 0.0
07:00 3.6 3.5 99 1014.8 2.2 N 3.1 0.0 0.0
07:01 3.6 3.5 99 1014.7 2.2 N 3.1 0.0 0.0
07:02 3.6 3.5 99 1014.9 2.2 N 3.1 0.0 0.0
07:03 3.6 3.5 99 1014.7 2.2 N 3.1 0.0 0.0
07:04 3.6 3.5 99 1014.9 2.2 N 2.2 0.0 0.0
07:06 3.5 3.4 99 1014.9 2.2 N 2.2 0.0 0.0
07:07 3.5 3.4 99 1015.1 3.1 N 3.1 0.0 0.0
07:09 3.5 3.4 99 1015.1 2.2 N 3.1 0.0 0.0
07:10 3.5 3.4 99 1015.2 2.2 N 3.1 0.0 0.0
07:12 3.4 3.3 99 1015.2 2.2 N 3.1 0.0 0.0
07:13 3.4 3.3 99 1015.3 3.1 N 3.1 0.0 0.0
07:14 3.3 3.2 99 1015.4 2.2 N 3.1 0.0 0.0
07:15 3.3 3.2 99 1015.3 2.2 N 3.1 0.0 0.0
07:16 3.3 3.2 99 1015.2 1.6 N 3.1 0.0 0.0
07:17 3.3 3.2 99 1015.4 2.2 N 3.1 0.0 0.0
07:18 3.3 3.2 99 1015.3 1.6 N 3.1 0.0 0.0
07:20 3.2 3.1 99 1015.4 1.6 N 3.1 0.0 0.0
07:21 3.2 3.1 99 1015.4 2.2 N 3.1 0.0 0.0
07:22 3.2 3.1 99 1015.5 1.6 N 3.1 0.0 0.0
07:23 3.2 3.1 99 1015.5 2.2 N 3.1 0.0 0.0
07:24 3.2 3.1 99 1015.5 2.2 N 2.2 0.0 0.0
07:25 3.2 3.1 99 1015.7 2.2 N 2.2 0.0 0.0
07:26 3.1 3.0 99 1015.6 1.6 N 2.2 0.0 0.0
07:27 3.1 3.0 99 1015.8 3.1 N 3.1 0.0 0.0
07:28 3.1 3.0 99 1015.7 1.6 N 3.1 0.0 0.0
07:29 3.1 3.0 99 1015.8 2.2 N 3.1 0.0 0.0
07:30 3.1 3.0 99 1015.8 1.6 N 3.1 0.0 0.0
07:31 3.1 3.0 99 1015.9 1.6 N 3.1 0.0 0.0
07:33 3.1 3.0 99 1015.8 1.6 N 3.1 0.0 0.0
07:34 3.1 3.0 99 1015.9 0.7 N 3.1 0.0 0.0
07:35 3.1 3.0 99 1016.0 2.2 N 3.1 0.0 0.0
07:36 3.1 3.0 99 1016.0 1.6 N 3.1 0.0 0.0
07:37 3.1 3.0 99 1016.0 1.6 N 3.1 0.0 0.0
07:38 3.0 2.9 99 1015.9 0.7 N 2.2 0.0 0.0
07:39 3.0 2.9 99 1016.0 1.6 N 2.2 0.0 0.0
07:40 3.0 2.9 99 1016.1 1.6 N 2.2 0.0 0.0
07:41 3.0 2.9 99 1016.2 0.7 N 2.2 0.0 0.0
07:42 3.0 2.9 99 1016.2 1.6 N 2.2 0.0 0.0
07:43 3.0 2.9 99 1016.2 2.2 N 2.2 0.0 0.0
07:44 3.0 2.9 99 1016.2 2.2 N 2.2 0.0 0.0
07:46 3.0 2.9 99 1016.2 3.1 N 3.1 0.0 0.0
07:47 3.0 2.9 99 1016.2 2.2 N 3.1 0.0 0.0
07:48 3.0 2.9 99 1016.4 2.2 N 3.1 0.0 0.0
07:49 3.0 2.9 99 1016.3 3.1 N 3.1 0.0 0.0
07:50 3.0 2.9 99 1016.5 3.8 N 3.8 0.0 0.0
07:51 3.0 2.9 99 1016.4 2.2 N 3.8 0.0 0.0
07:52 3.0 2.9 99 1016.5 1.6 N 3.8 0.0 0.0
07:53 3.0 2.9 99 1016.4 1.6 N 3.8 0.0 0.0
07:54 3.0 2.9 99 1016.7 1.6 N 3.8 0.0 0.0
07:55 3.0 2.9 99 1016.7 1.6 N 3.8 0.0 0.0
07:56 3.0 2.9 99 1016.7 1.6 N 3.8 0.0 0.0
07:57 2.9 2.8 99 1016.7 1.6 N 3.8 0.0 0.0
07:58 2.9 2.8 99 1016.7 2.2 N 3.8 0.0 0.0
07:59 2.9 2.8 99 1016.8 2.2 N 3.8 0.0 0.0
08:01 2.9 2.8 99 1016.6 2.2 N 3.1 0.0 0.0
08:03 2.9 2.8 99 1016.8 2.2 N 3.1 0.0 0.0
08:05 2.9 2.8 99 1016.9 2.2 N 3.1 0.0 0.0
08:07 2.9 2.8 99 1017.0 1.6 N 3.1 0.0 0.0
08:10 2.9 2.8 99 1017.0 2.2 N 2.2 0.0 0.0
08:12 2.9 2.8 99 1017.0 3.1 N 3.1 0.0 0.0
08:14 2.9 2.8 99 1017.1 3.1 N 3.1 0.0 0.0
08:16 2.9 2.8 99 1017.2 3.1 N 3.8 0.0 0.0
08:18 2.9 2.8 99 1017.2 3.1 N 3.8 0.0 0.0
08:20 2.9 2.8 99 1017.2 2.2 N 3.8 0.0 0.0
08:22 2.9 2.8 99 1017.2 3.1 N 3.8 0.0 0.0
08:24 3.0 2.9 99 1017.4 3.1 N 3.8 0.0 0.0
08:26 3.0 2.9 99 1017.5 2.2 N 3.1 0.0 0.0
08:28 3.0 2.9 99 1017.6 2.2 N 3.1 0.0 0.0
08:29 2.9 2.8 99 1017.5 3.1 N 3.1 0.0 0.0
08:31 2.9 2.8 99 1017.4 3.1 N 3.1 0.0 0.0
08:33 2.9 2.8 99 1017.6 5.4 N 5.4 0.0 0.0
08:35 2.9 2.8 99 1017.6 3.8 N 5.4 0.0 0.0
08:37 2.9 2.8 99 1017.7 2.2 N 5.4 0.0 0.0
08:39 3.0 2.9 99 1017.7 3.8 NW 5.4 0.0 0.0
08:40 3.0 2.9 99 1017.7 3.8 N 5.4 0.0 0.0
08:42 3.0 2.9 99 1017.8 3.8 N 5.4 0.0 0.0
08:44 3.0 2.9 99 1017.7 3.8 N 3.8 0.0 0.0
08:46 3.0 2.9 99 1017.8 3.1 N 3.8 0.0 0.0
08:47 3.0 2.9 99 1017.8 3.8 N 3.8 0.0 0.0
08:48 3.1 3.0 99 1017.8 3.8 N 3.8 0.0 0.0
08:49 3.0 2.9 99 1017.8 3.8 N 3.8 0.0 0.0
08:51 3.1 3.0 99 1017.8 3.8 NE 4.5 0.0 0.0
08:52 3.1 3.0 99 1017.8 3.1 NE 4.5 0.0 0.0
08:53 3.0 2.9 99 1017.8 3.1 NE 4.5 0.0 0.0
08:54 3.1 3.0 99 1017.8 3.8 N 4.5 0.0 0.0
08:55 3.1 3.0 99 1017.9 3.1 N 4.5 0.0 0.0
08:56 3.1 3.0 99 1017.9 3.8 N 4.5 0.0 0.0
08:57 3.1 3.0 99 1017.9 3.1 N 4.5 0.0 0.0
08:58 3.2 3.1 99 1017.9 3.8 N 4.5 0.0 0.0
08:59 3.1 3.0 99 1017.9 3.8 N 4.5 0.0 0.0
09:00 3.2 3.1 99 1017.9 5.4 NE 5.4 0.0 0.0
09:01 3.2 3.1 99 1018.0 5.4 NE 5.4 0.0 0.0
09:02 3.2 3.1 99 1018.0 5.4 NE 5.4 0.0 0.0
09:03 3.2 3.1 99 1018.0 5.4 NE 5.4 0.0 0.0
09:04 3.2 3.1 99 1018.1 5.4 NE 5.4 0.0 0.0
09:05 3.2 3.1 99 1018.2 5.4 NE 5.4 0.0 0.0
09:06 3.2 3.1 99 1018.2 3.8 NW 5.4 0.0 0.0
09:07 3.2 3.1 99 1018.4 3.1 N 5.4 0.0 0.0
09:09 3.2 3.1 99 1018.3 3.8 N 5.4 0.0 0.0
09:10 3.3 3.2 99 1018.3 4.5 N 5.4 0.0 0.0
09:12 3.2 3.1 99 1018.5 6.0 N 6.0 0.0 0.0
09:13 3.3 3.2 99 1018.3 4.5 N 6.0 0.0 0.0
09:14 3.3 3.2 99 1018.4 3.8 N 6.0 0.0 0.0
09:15 3.4 3.3 99 1018.5 3.8 N 6.0 0.0 0.0
09:16 3.4 3.3 99 1018.4 3.1 N 6.0 0.0 0.0
09:17 3.4 3.3 99 1018.5 3.8 N 6.0 0.0 0.0
09:18 3.4 3.3 99 1018.4 5.4 N 6.0 0.0 0.0
09:20 3.5 3.4 99 1018.4 3.8 N 6.0 0.0 0.0
09:21 3.5 3.4 99 1018.4 4.5 N 6.0 0.0 0.0
09:22 3.6 3.5 99 1018.4 4.5 N 5.4 0.0 0.0
09:23 3.6 3.5 99 1018.6 5.4 N 5.4 0.0 0.0
09:24 3.6 3.5 99 1018.5 3.8 N 5.4 0.0 0.0
09:25 3.6 3.5 99 1018.5 6.0 N 6.0 0.0 0.0
09:26 3.6 3.5 99 1018.5 3.8 NE 6.0 0.0 0.0
09:27 3.7 3.6 99 1018.5 4.5 N 6.0 0.0 0.0
09:28 3.7 3.6 99 1018.6 3.8 N 6.0 0.0 0.0
09:29 3.8 3.7 99 1018.6 4.5 NNE 6.0 0.0 0.0
09:30 3.8 3.7 99 1018.6 4.5 NE 6.0 0.0 0.0
09:31 3.9 3.8 99 1018.7 5.4 NE 6.0 0.0 0.0
09:32 3.9 3.8 99 1018.7 5.4 NE 6.0 0.0 0.0
09:33 3.8 3.7 99 1018.7 4.5 N 6.0 0.0 0.0
09:34 4.0 3.9 99 1018.6 4.5 NE 6.0 0.0 0.0
09:35 4.0 3.9 99 1018.6 5.4 NE 6.0 0.0 0.0
09:36 4.0 3.9 99 1018.7 5.4 NE 6.0 0.0 0.0
09:37 4.1 4.0 99 1018.6 6.9 N 6.9 0.0 0.0
09:38 4.1 4.0 99 1018.6 5.4 NE 6.9 0.0 0.0
09:39 4.2 4.1 99 1018.7 5.4 NE 6.9 0.0 0.0
09:40 4.2 4.1 99 1018.5 6.0 NE 6.9 0.0 0.0
09:41 4.2 4.1 99 1018.5 7.6 N 7.6 0.0 0.0
09:42 4.3 4.2 99 1018.5 4.5 N 7.6 0.0 0.0
09:43 4.3 4.2 99 1018.5 5.4 NE 7.6 0.0 0.0
09:44 4.3 4.2 99 1018.6 4.5 NE 7.6 0.0 0.0
09:45 4.4 4.3 99 1018.4 6.0 NE 7.6 0.0 0.0
09:46 4.5 4.4 99 1018.5 4.5 NE 7.6 0.0 0.0
09:48 4.5 4.4 99 1018.7 3.8 N 7.6 0.0 0.0
09:49 4.6 4.5 99 1018.6 5.4 NE 7.6 0.0 0.0
09:50 4.7 4.6 99 1018.7 5.4 N 7.6 0.0 0.0
09:51 4.7 4.6 99 1018.7 4.5 N 7.6 0.0 0.0
09:52 4.8 4.7 99 1018.8 4.5 NE 6.0 0.0 0.0
09:53 4.8 4.7 99 1018.9 5.4 NE 6.0 0.0 0.0
09:54 5.0 4.9 99 1018.7 4.5 NE 6.0 0.0 0.0
09:55 5.0 4.9 99 1018.9 5.4 N 6.0 0.0 0.0
09:56 5.1 5.0 99 1018.9 4.5 N 5.4 0.0 0.0
09:57 5.1 5.0 99 1018.9 3.1 N 5.4 0.0 0.0
09:58 5.3 5.2 99 1019.0 1.6 N 5.4 0.0 0.0
09:59 5.3 5.2 99 1019.0 5.4 N 5.4 0.0 0.0
10:00 5.4 5.3 99 1019.1 3.8 N 5.4 0.0 0.0
10:01 5.3 5.2 99 1019.1 4.5 N 5.4 0.0 0.0
10:02 5.3 5.2 99 1019.0 4.5 N 5.4 0.0 0.0
10:03 5.3 5.2 99 1019.1 4.5 N 5.4 0.0 0.0
10:04 5.3 5.2 99 1019.1 4.5 N 5.4 0.0 0.0
10:05 5.3 5.2 99 1019.1 4.5 N 5.4 0.0 0.0
10:06 5.8 5.7 99 1019.2 3.1 N 5.4 0.0 0.0
10:08 5.9 5.8 99 1019.2 3.8 N 5.4 0.0 0.0
10:09 5.9 5.8 99 1019.1 3.8 NE 4.5 0.0 0.0
10:11 5.9 5.8 99 1019.1 3.8 N 4.5 0.0 0.0
10:12 6.0 5.9 99 1019.2 4.5 NE 4.5 0.0 0.0
10:13 6.0 5.9 99 1019.2 3.8 NE 4.5 0.0 0.0
10:14 6.0 5.9 99 1019.2 4.5 NE 4.5 0.0 0.0
10:15 6.1 6.0 99 1019.3 4.5 NE 4.5 0.0 0.0
10:16 6.1 6.0 99 1019.3 6.0 NW 6.0 0.0 0.0
10:18 6.1 6.0 99 1019.3 4.5 N 6.0 0.0 0.0
10:19 6.1 6.0 99 1019.4 4.5 N 6.0 0.0 0.0
10:20 6.1 6.0 99 1019.4 4.5 NW 6.0 0.0 0.0
10:21 6.1 6.0 99 1019.4 3.8 NE 6.0 0.0 0.0
10:22 6.1 6.0 99 1019.4 3.8 NE 6.0 0.0 0.0
10:23 6.1 6.0 99 1019.4 3.8 NE 6.0 0.0 0.0
10:24 6.1 6.0 99 1019.5 4.5 NE 6.0 0.0 0.0
10:25 6.1 6.0 99 1019.5 3.8 NE 6.0 0.0 0.0
10:26 6.1 6.0 99 1019.4 1.6 NE 6.0 0.0 0.0
10:27 6.1 6.0 99 1019.6 2.2 NE 5.4 0.0 0.0
10:28 6.1 6.0 99 1019.6 2.2 NE 4.5 0.0 0.0
10:29 6.1 6.0 99 1019.6 1.6 NE 4.5 0.0 0.0
10:30 6.1 6.0 99 1019.7 2.2 NE 4.5 0.0 0.0
10:31 6.1 6.0 99 1019.5 2.2 NE 4.5 0.0 0.0
10:32 6.1 6.0 99 1019.7 2.2 NE 4.5 0.0 0.0
10:33 6.1 6.0 99 1019.7 2.2 NE 4.5 0.0 0.0
10:34 6.1 6.0 99 1019.7 5.4 NW 5.4 0.0 0.0
10:35 6.1 6.0 99 1019.8 2.2 NW 5.4 0.0 0.0
10:36 6.2 6.1 99 1019.7 3.1 NW 5.4 0.0 0.0
10:37 6.2 6.1 99 1019.7 2.2 NW 5.4 0.0 0.0
10:38 6.3 6.2 99 1019.6 0.7 NW 5.4 0.0 0.0
10:39 6.4 6.3 99 1019.6 3.1 NW 5.4 0.0 0.0
10:40 6.5 6.4 99 1019.6 1.6 NW 5.4 0.0 0.0
10:41 6.5 6.4 99 1019.6 2.2 NW 5.4 0.0 0.0
10:42 6.6 6.5 99 1019.7 3.8 NW 5.4 0.0 0.0
10:43 6.6 6.5 99 1019.7 3.1 NW 5.4 0.0 0.0
10:44 6.7 6.6 99 1019.7 3.8 NW 3.8 0.0 0.0
10:45 6.7 6.6 99 1019.7 4.5 NW 4.5 0.0 0.0
10:46 6.7 6.6 99 1019.6 3.8 NW 4.5 0.0 0.0
10:47 6.8 6.7 99 1019.6 3.8 NW 4.5 0.0 0.0
10:48 6.8 6.7 99 1019.7 3.1 NW 4.5 0.0 0.0
10:50 6.9 6.8 99 1019.6 2.2 NW 4.5 0.0 0.0
10:51 7.0 6.9 99 1019.7 2.2 NW 4.5 0.0 0.0
10:52 7.1 7.0 99 1019.7 3.8 NW 4.5 0.0 0.0
10:53 7.2 7.1 99 1019.7 4.5 N 4.5 0.0 0.0
10:54 7.3 7.2 99 1019.7 3.1 N 4.5 0.0 0.0
10:55 7.4 7.3 99 1019.7 3.1 N 4.5 0.0 0.0
10:56 7.5 7.4 99 1019.8 2.2 N 4.5 0.0 0.0
10:57 7.6 7.5 99 1019.7 3.1 N 4.5 0.0 0.0
10:58 7.7 7.6 99 1019.8 3.1 NW 4.5 0.0 0.0
10:59 7.8 7.7 99 1019.9 3.1 NW 4.5 0.0 0.0
11:00 7.9 7.8 99 1020.0 3.1 NW 4.5 0.0 0.0
11:01 8.0 7.9 99 1019.8 2.2 NW 4.5 0.0 0.0
11:02 8.0 7.9 99 1019.8 2.2 NW 4.5 0.0 0.0
11:03 8.2 8.1 99 1019.7 3.1 NW 4.5 0.0 0.0
11:04 8.2 8.1 99 1019.8 4.5 NW 4.5 0.0 0.0
11:05 8.3 8.2 99 1019.8 3.8 NW 4.5 0.0 0.0
11:06 8.4 8.3 99 1019.8 2.2 NW 4.5 0.0 0.0
11:08 8.5 8.4 99 1020.0 3.1 NW 4.5 0.0 0.0
11:09 8.6 8.5 99 1020.0 3.8 NW 4.5 0.0 0.0
11:11 8.7 8.6 99 1020.0 3.8 NW 4.5 0.0 0.0
11:12 8.7 8.6 99 1019.9 3.1 NW 4.5 0.0 0.0
11:13 8.6 8.5 99 1020.0 4.5 NW 4.5 0.0 0.0
11:14 8.7 8.6 99 1020.0 4.5 NW 4.5 0.0 0.0
11:15 8.6 8.5 99 1019.9 2.2 NW 4.5 0.0 0.0
11:16 8.6 8.5 99 1019.9 1.6 NW 4.5 0.0 0.0
11:17 8.6 8.5 99 1019.9 3.1 NW 4.5 0.0 0.0
11:18 8.5 8.4 99 1020.0 3.1 NW 4.5 0.0 0.0
11:19 8.5 8.4 99 1019.9 3.1 NW 4.5 0.0 0.0
11:20 8.4 8.3 99 1019.8 3.8 NW 4.5 0.0 0.0
11:21 8.4 8.3 99 1019.9 3.1 NW 4.5 0.0 0.0
11:22 8.3 8.2 99 1019.8 2.2 NW 4.5 0.0 0.0
11:23 8.2 8.1 99 1019.9 3.1 NW 4.5 0.0 0.0
11:24 8.2 7.9 98 1019.8 3.1 NW 3.8 0.0 0.0
11:25 8.2 7.9 98 1019.8 3.1 NW 3.8 0.0 0.0
11:27 8.3 8.2 99 1019.8 3.1 NW 3.8 0.0 0.0
11:28 8.3 8.2 99 1019.7 4.5 N 4.5 0.0 0.0
11:29 8.5 8.2 98 1019.7 3.8 N 4.5 0.0 0.0
11:30 8.5 8.2 98 1019.5 4.5 N 4.5 0.0 0.0
11:31 8.5 8.2 98 1019.6 4.5 N 4.5 0.0 0.0
11:32 8.6 8.3 98 1019.6 3.8 N 4.5 0.0 0.0
11:33 8.6 8.2 97 1019.6 3.1 N 4.5 0.0 0.0
11:34 8.6 8.2 97 1019.7 3.8 N 4.5 0.0 0.0
11:35 8.6 8.2 97 1019.9 3.8 N 4.5 0.0 0.0
11:36 8.7 8.3 97 1019.8 1.6 N 4.5 0.0 0.0
11:37 8.8 8.4 97 1019.8 3.1 N 4.5 0.0 0.0
11:38 8.8 8.4 97 1019.8 2.2 N 4.5 0.0 0.0
11:39 8.9 8.5 97 1019.9 3.1 N 4.5 0.0 0.0
11:40 8.9 8.5 97 1019.8 3.1 N 4.5 0.0 0.0
11:41 9.0 8.6 97 1019.9 2.2 N 3.8 0.0 0.0
11:42 9.0 8.6 97 1019.8 1.6 N 3.8 0.0 0.0
11:43 9.1 8.5 96 1019.9 2.2 N 3.8 0.0 0.0
11:44 9.2 8.6 96 1019.9 2.2 N 3.8 0.0 0.0
11:45 9.2 8.6 96 1019.8 0.7 N 3.1 0.0 0.0
11:46 9.4 8.9 97 1019.9 0.7 N 3.1 0.0 0.0
11:47 9.5 8.9 96 1020.0 3.1 N 3.1 0.0 0.0
11:48 9.5 8.9 96 1019.9 2.2 N 3.1 0.0 0.0
11:49 9.6 9.0 96 1020.0 2.2 N 3.1 0.0 0.0
11:50 9.6 9.0 96 1019.7 3.8 N 3.8 0.0 0.0
11:51 9.7 8.9 95 1019.7 2.2 N 3.8 0.0 0.0
11:52 9.8 9.0 95 1019.8 3.1 N 3.8 0.0 0.0
11:53 9.9 9.1 95 1019.8 3.1 N 3.8 0.0 0.0
11:55 10.0 9.1 94 1019.9 3.8 N 3.8 0.0 0.0
11:56 10.0 9.1 94 1019.9 2.2 N 3.8 0.0 0.0
11:57 10.0 9.1 94 1019.8 2.2 N 3.8 0.0 0.0
11:58 10.1 9.2 94 1019.8 1.6 N 4.5 0.0 0.0
11:59 10.1 9.0 93 1019.9 1.6 N 4.5 0.0 0.0
12:00 10.2 9.1 93 1019.9 3.1 N 4.5 0.0 0.0
12:01 10.2 9.1 93 1019.9 3.1 N 4.5 0.0 0.0
12:02 10.3 9.2 93 1019.9 3.8 N 4.5 0.0 0.0
12:03 10.3 9.2 93 1019.7 4.5 N 4.5 0.0 0.0
12:04 10.4 9.3 93 1020.1 3.8 N 4.5 0.0 0.0
12:05 10.4 9.2 92 1020.0 3.1 N 4.5 0.0 0.0
12:06 10.5 9.1 91 1019.9 3.1 N 4.5 0.0 0.0
12:08 10.5 9.1 91 1019.9 4.5 N 4.5 0.0 0.0
12:09 10.5 8.9 90 1019.9 5.4 N 5.4 0.0 0.0
12:11 10.5 8.9 90 1020.0 3.8 N 5.4 0.0 0.0
12:12 10.5 8.8 89 1020.0 3.1 N 5.4 0.0 0.0
12:13 10.5 8.8 89 1020.1 3.1 N 5.4 0.0 0.0
12:14 10.5 8.8 89 1019.9 3.1 N 5.4 0.0 0.0
12:15 10.5 8.9 90 1020.1 2.2 N 5.4 0.0 0.0
12:16 10.5 8.8 89 1020.0 1.6 N 5.4 0.0 0.0
12:17 10.5 8.8 89 1020.0 3.1 N 5.4 0.0 0.0
12:18 10.4 8.7 89 1020.1 3.1 N 5.4 0.0 0.0
12:19 10.4 8.7 89 1020.3 3.8 N 3.8 0.0 0.0
12:20 10.4 8.7 89 1020.4 3.1 N 3.8 0.0 0.0
12:22 10.5 8.8 89 1020.1 3.1 N 3.8 0.0 0.0
12:23 10.6 9.0 90 1020.3 4.5 N 4.5 0.0 0.0
12:24 10.6 8.9 89 1020.4 4.5 N 4.5 0.0 0.0
12:25 10.7 9.0 89 1020.5 3.8 N 4.5 0.0 0.0
12:26 10.7 9.0 89 1020.3 3.1 N 4.5 0.0 0.0
12:27 10.7 8.8 88 1020.4 1.6 N 4.5 0.0 0.0
12:28 10.7 9.0 89 1020.3 3.8 N 4.5 0.0 0.0
12:29 10.7 9.0 89 1020.5 3.8 N 4.5 0.0 0.0
12:30 10.7 8.8 88 1020.4 3.8 N 4.5 0.0 0.0
12:31 10.7 8.8 88 1020.5 5.4 N 5.4 0.0 0.0
12:32 10.8 8.9 88 1020.3 1.6 N 5.4 0.0 0.0
12:33 10.8 8.9 88 1020.5 3.8 N 5.4 0.0 0.0
12:34 10.8 8.7 87 1020.4 3.1 N 5.4 0.0 0.0
12:35 10.8 8.6 86 1020.3 4.5 N 5.4 0.0 0.0
12:36 10.7 8.5 86 1020.4 3.8 N 5.4 0.0 0.0
12:37 10.8 8.6 86 1020.4 4.5 N 5.4 0.0 0.0
12:38 10.7 8.6 87 1020.3 4.5 N 5.4 0.0 0.0
12:39 10.7 8.6 87 1020.3 3.8 N 5.4 0.0 0.0
12:40 10.8 8.7 87 1020.3 4.5 N 5.4 0.0 0.0
12:41 10.8 8.6 86 1020.3 5.4 N 5.4 0.0 0.0
12:42 10.8 8.4 85 1020.3 3.8 N 5.4 0.0 0.0
12:43 10.8 8.6 86 1020.5 3.8 N 5.4 0.0 0.0
12:44 10.8 8.6 86 1020.6 3.8 N 5.4 0.0 0.0
12:45 10.9 8.5 85 1020.5 5.4 N 5.4 0.0 0.0
12:46 10.8 8.4 85 1020.5 3.1 N 5.4 0.0 0.0
12:48 10.9 8.5 85 1020.4 2.2 N 5.4 0.0 0.0
12:49 10.9 8.5 85 1020.5 3.1 N 5.4 0.0 0.0
12:50 10.9 8.5 85 1020.4 2.2 N 5.4 0.0 0.0
12:51 11.0 8.6 85 1020.4 3.8 N 5.4 0.0 0.0
12:52 11.0 8.6 85 1020.5 6.0 N 6.0 0.0 0.0
12:53 11.0 8.6 85 1020.6 5.4 N 6.0 0.0 0.0
12:54 11.0 8.6 85 1020.6 4.5 N 6.0 0.0 0.0
12:55 11.0 8.6 85 1020.4 6.9 N 6.9 0.0 0.0
12:56 11.0 8.6 85 1020.4 5.4 N 6.9 0.0 0.0
12:57 11.0 8.6 85 1020.6 6.0 NW 6.9 0.0 0.0
12:58 11.0 8.6 85 1020.6 2.2 NW 6.9 0.0 0.0
12:59 11.0 8.9 87 1020.7 3.1 NW 6.9 0.0 0.0
13:00 11.1 9.0 87 1020.6 6.0 NW 6.9 0.0 0.0
13:01 11.1 9.0 87 1020.7 6.0 NW 6.9 0.0 0.0
13:02 11.1 9.0 87 1020.6 6.0 NW 6.9 0.0 0.0
13:03 11.1 9.0 87 1020.7 6.0 NW 6.9 0.0 0.0
13:04 11.1 9.0 87 1020.5 6.0 NW 6.9 0.0 0.0
13:05 11.1 9.0 87 1020.7 6.0 NW 6.0 0.0 0.0
13:07 11.0 8.2 83 1020.5 6.9 NW 6.9 0.0 0.0
13:08 10.9 8.1 83 1020.7 7.6 NW 7.6 0.0 0.0
13:10 10.9 8.0 82 1020.7 6.0 NW 7.6 0.0 0.0
13:12 10.9 8.0 82 1020.8 6.0 W 7.6 0.0 0.0
13:13 10.9 8.1 83 1020.8 5.4 NW 7.6 0.0 0.0
13:14 10.9 8.0 82 1020.8 4.5 NW 7.6 0.0 0.0
13:15 10.9 8.1 83 1020.8 4.5 NW 7.6 0.0 0.0
13:16 10.9 8.1 83 1020.8 3.8 NW 7.6 0.0 0.0
13:17 11.0 8.4 84 1020.8 5.4 N 7.6 0.0 0.0
13:18 11.0 8.4 84 1020.8 4.5 NW 6.9 0.0 0.0
13:19 11.1 8.5 84 1020.8 2.2 NW 6.9 0.0 0.0
13:21 11.2 8.6 84 1020.8 3.8 NW 6.9 0.0 0.0
13:22 11.2 8.6 84 1020.9 3.8 NW 6.9 0.0 0.0
13:23 11.2 8.4 83 1020.9 6.9 NW 6.9 0.0 0.0
13:24 11.2 8.4 83 1020.9 4.5 NW 6.9 0.0 0.0
13:26 11.1 8.3 83 1020.9 3.1 NW 6.9 0.0 0.0
13:27 11.1 8.5 84 1020.9 3.8 NW 6.9 0.0 0.0
13:28 11.1 8.3 83 1020.8 6.9 NW 6.9 0.0 0.0
13:29 11.1 8.3 83 1021.1 5.4 NW 6.9 0.0 0.0
13:30 11.1 8.3 83 1021.0 4.5 NW 6.9 0.0 0.0
13:31 11.2 8.4 83 1021.1 3.1 NW 6.9 0.0 0.0
13:32 11.1 8.3 83 1021.1 3.8 NW 6.9 0.0 0.0
13:33 11.1 8.3 83 1021.1 4.5 NW 6.9 0.0 0.0
13:34 11.1 8.3 83 1021.1 5.4 NW 6.9 0.0 0.0
13:36 11.2 8.4 83 1021.2 4.5 NW 6.9 0.0 0.0
13:37 11.2 8.4 83 1021.2 4.5 NW 6.9 0.0 0.0
13:38 11.2 8.6 84 1021.3 3.8 NW 5.4 0.0 0.0
13:39 11.2 8.6 84 1021.4 5.4 N 5.4 0.0 0.0
13:40 11.2 8.4 83 1021.2 5.4 N 5.4 0.0 0.0
13:41 11.2 8.4 83 1021.2 5.4 NW 5.4 0.0 0.0
13:43 11.2 8.4 83 1021.3 6.0 NW 6.0 0.0 0.0
13:44 11.2 8.6 84 1021.4 4.5 NW 6.0 0.0 0.0
13:45 11.2 8.6 84 1021.3 4.5 NW 6.0 0.0 0.0
13:46 11.2 8.6 84 1021.4 4.5 NW 6.0 0.0 0.0
13:47 11.1 8.3 83 1021.4 3.8 NW 6.0 0.0 0.0
13:48 11.1 8.5 84 1021.4 3.1 NW 6.0 0.0 0.0
13:49 11.1 8.5 84 1021.3 4.5 NW 6.0 0.0 0.0
13:50 11.1 8.5 84 1021.4 2.2 NW 6.0 0.0 0.0
13:51 11.1 8.7 85 1021.6 4.5 NW 6.0 0.0 0.0
13:53 11.2 8.6 84 1021.6 4.5 W 5.4 0.0 0.0
13:54 11.1 8.5 84 1021.6 5.4 W 5.4 0.0 0.0
13:56 11.0 8.4 84 1021.7 3.8 NW 5.4 0.0 0.0
13:58 11.0 8.4 84 1021.7 4.5 NW 6.0 0.0 0.0
14:00 11.0 8.6 85 1021.8 6.9 W 6.9 0.0 0.0
14:01 11.0 8.6 85 1021.8 7.6 W 7.6 0.0 0.0
14:02 10.9 8.3 84 1021.7 6.9 W 7.6 0.0 0.0
14:03 10.8 8.2 84 1021.8 7.6 NW 7.6 0.0 0.0
14:04 10.7 8.1 84 1021.7 6.0 NW 7.6 0.0 0.0
14:05 10.7 8.3 85 1021.9 4.5 NW 7.6 0.0 0.0
14:07 10.7 8.3 85 1021.8 3.8 W 7.6 0.0 0.0
14:09 10.7 8.3 85 1022.0 4.5 NW 7.6 0.0 0.0
14:10 10.6 8.2 85 1022.0 6.9 N 7.6 0.0 0.0
14:12 10.6 8.2 85 1022.0 6.9 N 7.6 0.0 0.0
14:13 10.5 8.1 85 1022.0 6.0 NW 7.6 0.0 0.0
14:14 10.5 8.1 85 1022.0 4.5 NW 6.9 0.0 0.0
14:15 10.5 8.3 86 1022.0 3.8 NW 6.9 0.0 0.0
14:17 10.5 8.4 87 1022.1 3.8 N 6.9 0.0 0.0
14:18 10.6 8.4 86 1022.0 5.4 NW 6.9 0.0 0.0
14:19 10.6 8.4 86 1022.1 6.9 NW 6.9 0.0 0.0
14:20 10.5 8.1 85 1022.0 6.9 NW 6.9 0.0 0.0
14:21 10.5 8.4 87 1022.0 6.0 NW 6.9 0.0 0.0
14:22 10.5 8.4 87 1022.0 6.0 NW 6.9 0.0 0.0
14:23 10.5 8.3 86 1021.9 8.3 NW 8.3 0.0 0.0
14:24 10.4 8.0 85 1021.9 6.9 NW 8.3 0.0 0.0
14:25 10.3 7.9 85 1022.0 8.3 NW 8.3 0.0 0.0
14:26 10.3 7.9 85 1021.9 6.0 NW 8.3 0.0 0.0
14:27 10.2 7.8 85 1022.1 6.0 NW 8.3 0.0 0.0
14:28 10.2 7.8 85 1021.9 6.9 NW 8.3 0.0 0.0
14:29 10.2 7.8 85 1022.0 6.0 NW 8.3 0.0 0.0
14:30 10.1 7.7 85 1022.1 5.4 NW 8.3 0.0 0.0
14:31 10.1 7.9 86 1022.0 2.2 NW 8.3 0.0 0.0
14:32 10.2 8.1 87 1021.9 5.4 W 8.3 0.0 0.0
14:33 10.2 8.1 87 1022.0 6.0 W 8.3 0.0 0.0
14:34 10.2 8.1 87 1022.1 5.4 NW 8.3 0.0 0.0
14:36 10.3 8.2 87 1022.1 5.4 NW 6.9 0.0 0.0
14:37 10.3 8.2 87 1022.2 6.0 NW 6.9 0.0 0.0
14:38 10.2 8.0 86 1022.2 6.0 N 8.3 0.0 0.0
14:39 10.2 8.0 86 1022.0 6.0 N 8.3 0.0 0.0
14:40 10.2 8.0 86 1022.2 8.3 N 8.3 0.0 0.0
14:41 10.1 7.9 86 1022.2 6.0 N 8.3 0.0 0.0
14:42 10.1 8.0 87 1022.1 6.0 N 8.3 0.0 0.0
14:43 10.1 8.0 87 1022.2 6.9 N 8.3 0.0 0.0
14:44 10.1 8.0 87 1022.3 6.9 NW 8.3 0.0 0.0
14:45 10.1 8.2 88 1022.2 6.9 NW 8.3 0.0 0.0
14:46 10.1 8.2 88 1022.2 6.0 W 8.3 0.0 0.0
14:47 10.1 8.2 88 1022.2 5.4 N 8.3 0.0 0.0
14:48 10.0 8.1 88 1022.2 6.9 N 8.3 0.0 0.0
14:49 10.0 8.1 88 1022.3 6.9 NW 8.3 0.0 0.0
14:50 10.0 8.1 88 1022.3 6.0 NW 6.9 0.0 0.0
14:51 10.0 8.1 88 1022.3 6.0 SW 7.6 0.0 0.0
14:52 10.0 8.1 88 1022.4 9.2 NW 9.2 0.0 0.0
14:53 9.9 8.0 88 1022.4 6.0 NW 9.2 0.0 0.0
14:55 9.9 8.0 88 1022.4 9.2 NW 9.2 0.0 0.0
14:56 9.9 8.0 88 1022.4 3.1 NW 9.2 0.0 0.0
14:57 9.9 8.2 89 1022.3 8.3 NW 9.2 0.0 0.0
14:58 9.9 8.2 89 1022.6 7.6 NW 9.2 0.0 0.0
14:59 9.9 8.2 89 1022.4 6.0 NW 9.2 0.0 0.0
15:00 9.9 8.2 89 1022.3 6.0 NW 9.2 0.0 0.0
15:01 9.9 8.2 89 1022.4 6.0 NW 9.2 0.0 0.0
15:02 9.8 8.1 89 1022.5 6.0 NW 9.2 0.0 0.0
15:05 9.8 8.2 90 1022.5 6.0 NW 9.2 0.0 0.0
15:08 9.8 8.2 90 1022.3 6.9 NW 7.6 0.0 0.0
15:10 9.7 8.1 90 1022.3 5.4 NW 7.6 0.0 0.0
15:12 9.8 8.4 91 1022.4 3.8 N 7.6 0.0 0.0
15:13 9.8 8.4 91 1022.4 4.5 NW 6.9 0.0 0.0
15:15 9.8 8.4 91 1022.4 6.9 NW 6.9 0.0 0.0
15:16 9.8 8.2 90 1022.3 6.9 N 6.9 0.0 0.0
15:17 9.8 8.2 90 1022.4 4.5 NW 6.9 0.0 0.0
15:18 9.8 8.2 90 1022.4 6.0 N 6.9 0.0 0.0
15:19 9.8 8.2 90 1022.3 6.0 N 6.9 0.0 0.0
15:20 9.8 8.2 90 1022.3 6.0 N 6.9 0.0 0.0
15:21 9.8 8.2 90 1022.3 5.4 N 6.9 0.0 0.0
15:23 9.8 8.2 90 1022.2 5.4 NW 9.8 0.0 0.0
15:24 9.7 8.1 90 1022.2 6.0 NE 9.8 0.0 0.0
15:25 9.7 8.1 90 1022.3 2.2 N 9.8 0.0 0.0
15:26 9.7 8.1 90 1022.2 3.8 N 9.8 0.0 0.0
15:27 9.7 8.1 90 1022.3 3.8 N 9.8 0.0 0.0
15:28 9.7 8.1 90 1022.1 5.4 N 9.8 0.0 0.0
15:29 9.6 8.0 90 1022.2 4.5 N 9.8 0.0 0.0
15:30 9.6 8.0 90 1022.3 3.8 N 9.8 0.0 0.0
15:31 9.5 7.9 90 1022.2 3.8 N 9.8 0.0 0.0
15:32 9.5 7.9 90 1022.3 4.5 NW 6.0 0.0 0.0
15:33 9.5 7.9 90 1022.3 3.8 NW 6.0 0.0 0.0
15:34 9.4 7.8 90 1022.3 4.5 NW 5.4 0.0 0.0
15:36 9.4 7.8 90 1022.3 6.0 NW 6.0 0.0 0.0
15:37 9.4 7.8 90 1022.3 3.1 N 6.0 0.0 0.0
15:38 9.4 7.8 90 1022.3 2.2 NE 6.0 0.0 0.0
15:39 9.4 7.8 90 1022.2 3.8 N 6.0 0.0 0.0
15:40 9.4 7.8 90 1022.2 3.8 N 6.0 0.0 0.0
15:41 9.4 7.8 90 1022.2 3.8 N 6.0 0.0 0.0
15:42 9.4 7.8 90 1022.4 3.8 N 6.0 0.0 0.0
15:44 9.4 7.8 90 1022.4 3.1 N 6.0 0.0 0.0
15:45 9.4 7.8 90 1022.2 4.5 N 6.0 0.0 0.0
15:46 9.3 7.7 90 1022.2 3.1 N 5.4 0.0 0.0
15:47 9.3 7.7 90 1022.2 6.0 N 6.0 0.0 0.0
15:48 9.3 7.7 90 1022.2 5.4 N 6.0 0.0 0.0
15:49 9.3 7.7 90 1022.0 3.1 N 6.0 0.0 0.0
15:50 9.3 7.7 90 1022.2 2.2 N 6.0 0.0 0.0
15:51 9.3 7.9 91 1022.0 2.2 N 6.0 0.0 0.0
15:52 9.3 7.7 90 1022.2 3.8 N 6.0 0.0 0.0
15:53 9.3 7.7 90 1021.9 3.1 N 6.0 0.0 0.0
15:54 9.2 7.6 90 1021.9 3.8 N 6.0 0.0 0.0
15:55 9.2 7.6 90 1022.0 3.1 N 6.0 0.0 0.0
15:56 9.2 7.6 90 1021.9 4.5 N 6.0 0.0 0.0
15:57 9.1 7.5 90 1021.9 3.1 N 5.4 0.0 0.0
15:58 9.1 7.5 90 1021.9 5.4 N 5.4 0.0 0.0
16:00 9.0 7.4 90 1021.9 4.5 N 5.4 0.0 0.0
16:01 9.0 7.4 90 1022.0 3.8 NE 5.4 0.0 0.0
16:02 9.0 7.4 90 1021.9 3.8 NE 5.4 0.0 0.0
16:03 9.0 7.4 90 1021.9 3.8 NE 5.4 0.0 0.0
16:04 9.0 7.4 90 1022.0 3.8 NE 5.4 0.0 0.0
16:05 9.0 7.4 90 1021.9 3.8 NE 5.4 0.0 0.0
16:06 8.7 7.2 90 1021.8 3.1 NE 5.4 0.0 0.0
16:09 8.6 7.1 90 1022.0 3.1 NE 5.4 0.0 0.0
16:11 8.6 7.1 90 1021.9 3.8 N 4.5 0.0 0.0
16:12 8.5 7.0 90 1021.9 3.8 N 4.5 0.0 0.0
16:14 8.5 7.1 91 1021.9 3.8 NE 4.5 0.0 0.0
16:15 8.4 6.9 90 1021.7 3.8 N 4.5 0.0 0.0
16:17 8.4 7.0 91 1021.9 3.8 N 4.5 0.0 0.0
16:19 8.4 6.9 90 1022.0 3.8 NE 4.5 0.0 0.0
16:20 8.3 6.8 90 1022.0 3.8 NE 4.5 0.0 0.0
16:21 8.3 6.9 91 1021.9 3.8 NE 4.5 0.0 0.0
16:22 8.2 6.7 90 1022.1 3.1 NE 4.5 0.0 0.0
16:23 8.2 6.8 91 1022.0 3.8 NE 4.5 0.0 0.0
16:24 8.1 6.7 91 1022.1 3.1 N 4.5 0.0 0.0
16:25 8.1 6.6 90 1021.9 3.8 N 4.5 0.0 0.0
16:26 8.0 6.6 91 1022.1 4.5 NE 4.5 0.0 0.0
16:27 7.9 6.5 91 1022.0 3.8 NE 4.5 0.0 0.0
16:28 7.9 6.5 91 1022.1 3.1 NE 4.5 0.0 0.0
16:30 7.8 6.3 90 1022.0 3.1 N 4.5 0.0 0.0
16:31 7.8 6.4 91 1022.1 3.1 N 4.5 0.0 0.0
16:32 7.7 6.3 91 1022.1 3.8 NE 4.5 0.0 0.0
16:33 7.6 6.2 91 1022.0 3.1 NE 4.5 0.0 0.0
16:34 7.6 6.2 91 1022.2 3.8 N 4.5 0.0 0.0
16:35 7.6 6.2 91 1022.2 3.1 N 4.5 0.0 0.0
16:36 7.5 6.1 91 1022.0 4.5 N 4.5 0.0 0.0
16:37 7.4 6.0 91 1022.1 3.1 NE 4.5 0.0 0.0
16:38 7.4 6.0 91 1022.1 3.8 N 4.5 0.0 0.0
16:39 7.3 5.9 91 1022.2 3.1 N 4.5 0.0 0.0
16:40 7.3 5.9 91 1022.2 3.8 N 4.5 0.0 0.0
16:41 7.2 5.8 91 1022.2 3.1 NE 4.5 0.0 0.0
16:42 7.1 5.7 91 1022.3 3.8 N 4.5 0.0 0.0
16:43 7.1 5.7 91 1022.3 4.5 N 4.5 0.0 0.0
16:44 7.0 5.6 91 1022.3 3.8 N 4.5 0.0 0.0
16:45 7.0 5.6 91 1022.2 4.5 N 4.5 0.0 0.0
16:46 6.9 5.5 91 1022.2 3.1 N 4.5 0.0 0.0
16:47 6.9 5.5 91 1022.2 4.5 N 4.5 0.0 0.0
16:48 6.9 5.5 91 1022.2 3.1 N 4.5 0.0 0.0
16:49 6.8 5.4 91 1022.3 3.1 N 4.5 0.0 0.0
16:50 6.8 5.6 92 1022.5 3.1 N 4.5 0.0 0.0
16:52 6.7 5.5 92 1022.4 3.1 N 4.5 0.0 0.0
16:53 6.7 5.5 92 1022.4 2.2 N 4.5 0.0 0.0
16:54 6.6 5.4 92 1022.4 3.1 N 4.5 0.0 0.0
16:55 6.6 5.4 92 1022.4 2.2 N 4.5 0.0 0.0
16:56 6.6 5.4 92 1022.4 1.6 N 4.5 0.0 0.0
16:57 6.5 5.3 92 1022.5 3.1 N 4.5 0.0 0.0
16:58 6.5 5.3 92 1022.5 2.2 N 3.1 0.0 0.0
16:59 6.4 5.2 92 1022.4 2.2 N 3.8 0.0 0.0
17:00 6.4 5.2 92 1022.4 2.2 N 3.8 0.0 0.0
17:01 6.4 5.2 92 1022.5 2.2 N 3.8 0.0 0.0
17:02 6.4 5.2 92 1022.5 2.2 N 3.8 0.0 0.0
17:03 6.4 5.2 92 1022.6 2.2 N 3.8 0.0 0.0
17:05 6.4 5.2 92 1022.7 2.2 N 3.8 0.0 0.0
17:06 6.4 5.2 92 1022.6 2.2 N 3.8 0.0 0.0
17:07 6.2 5.2 93 1022.7 3.8 N 3.8 0.0 0.0
17:09 6.1 5.1 93 1022.6 2.2 N 3.8 0.0 0.0
17:10 6.1 5.1 93 1022.7 3.1 N 3.8 0.0 0.0
17:12 6.1 5.1 93 1022.6 3.1 N 3.8 0.0 0.0
17:13 6.0 5.0 93 1022.7 2.2 N 3.8 0.0 0.0
17:15 6.0 5.0 93 1022.7 3.1 N 3.8 0.0 0.0
17:16 5.9 4.9 93 1022.6 3.1 N 3.8 0.0 0.0
17:17 5.9 5.0 94 1022.8 3.1 N 3.8 0.0 0.0
17:18 5.9 5.0 94 1022.8 3.1 N 3.8 0.0 0.0
17:19 5.9 5.0 94 1022.9 2.2 N 3.8 0.0 0.0
17:20 5.9 5.0 94 1022.8 2.2 N 3.8 0.0 0.0
17:21 5.8 4.9 94 1022.8 4.5 N 4.5 0.0 0.0
17:22 5.8 4.9 94 1022.7 2.2 N 4.5 0.0 0.0
17:23 5.8 4.9 94 1022.8 1.6 N 4.5 0.0 0.0
17:24 5.8 4.9 94 1022.8 1.6 N 4.5 0.0 0.0
17:25 5.8 4.9 94 1022.7 0.7 N 4.5 0.0 0.0
17:26 5.7 4.8 94 1022.8 3.1 N 4.5 0.0 0.0
17:27 5.7 4.8 94 1022.8 3.1 N 4.5 0.0 0.0
17:28 5.7 4.8 94 1022.8 2.2 N 4.5 0.0 0.0
17:30 5.6 4.7 94 1023.0 1.6 N 4.5 0.0 0.0
17:31 5.6 4.7 94 1022.8 0.7 N 4.5 0.0 0.0
17:32 5.6 4.7 94 1023.0 0.0 N 3.1 0.0 0.0
17:33 5.5 4.6 94 1023.0 0.0 N 3.1 0.0 0.0
17:34 5.5 4.6 94 1023.0 0.7 N 3.1 0.0 0.0
17:35 5.5 4.6 94 1023.0 1.6 N 3.1 0.0 0.0
17:36 5.4 4.5 94 1023.1 1.6 N 3.1 0.0 0.0
17:37 5.4 4.5 94 1023.0 0.7 N 3.1 0.0 0.0
17:38 5.3 4.4 94 1023.1 1.6 N 2.2 0.0 0.0
17:39 5.3 4.4 94 1023.1 1.6 N 2.2 0.0 0.0
17:40 5.3 4.4 94 1023.1 0.7 N 1.6 0.0 0.0
17:41 5.2 4.3 94 1023.2 0.7 N 1.6 0.0 0.0
17:42 5.2 4.3 94 1023.2 0.0 N 1.6 0.0 0.0
17:43 5.2 4.3 94 1023.2 0.7 N 1.6 0.0 0.0
17:44 5.1 4.4 95 1023.3 1.6 N 1.6 0.0 0.0
17:45 5.1 4.4 95 1023.3 1.6 N 1.6 0.0 0.0
17:46 5.0 4.3 95 1023.3 0.7 N 1.6 0.0 0.0
17:47 5.0 4.3 95 1023.3 0.0 N 1.6 0.0 0.0
17:49 5.0 4.3 95 1023.3 0.7 N 1.6 0.0 0.0
17:50 4.9 4.2 95 1023.3 0.7 N 1.6 0.0 0.0
17:51 4.9 4.2 95 1023.3 0.7 N 1.6 0.0 0.0
17:52 4.9 4.2 95 1023.2 0.7 N 1.6 0.0 0.0
17:53 4.8 4.1 95 1023.4 1.6 N 1.6 0.0 0.0
17:55 4.8 4.1 95 1023.2 0.7 N 1.6 0.0 0.0
17:56 4.8 4.1 95 1023.3 0.7 N 1.6 0.0 0.0
17:57 4.7 4.0 95 1023.2 0.7 N 1.6 0.0 0.0
17:58 4.7 4.0 95 1023.3 0.7 N 1.6 0.0 0.0
17:59 4.7 4.0 95 1023.3 0.7 N 1.6 0.0 0.0
18:00 4.7 4.0 95 1023.3 0.7 N 1.6 0.0 0.0
18:02 4.7 4.0 95 1023.2 0.7 N 1.6 0.0 0.0
18:03 4.7 4.0 95 1023.3 0.7 N 1.6 0.0 0.0
18:04 4.7 4.0 95 1023.3 0.7 N 0.7 0.0 0.0
18:05 4.7 4.0 95 1023.4 0.7 N 0.7 0.0 0.0
18:07 4.7 4.0 95 1023.3 0.7 N 0.7 0.0 0.0
18:08 4.7 4.0 95 1023.3 0.7 N 0.7 0.0 0.0
18:10 4.5 3.9 96 1023.4 0.7 N 0.7 0.0 0.0
18:12 4.4 3.8 96 1023.4 0.7 N 1.6 0.0 0.0
18:13 4.3 3.7 96 1023.3 0.7 N 1.6 0.0 0.0
18:15 4.4 3.8 96 1023.3 1.6 N 1.6 0.0 0.0
18:16 4.2 3.6 96 1023.5 0.7 N 1.6 0.0 0.0
18:17 4.2 3.6 96 1023.5 0.7 N 1.6 0.0 0.0
18:18 4.1 3.5 96 1023.5 0.0 N 1.6 0.0 0.0
18:19 4.1 3.5 96 1023.6 0.0 N 1.6 0.0 0.0
18:20 4.0 3.4 96 1023.6 0.0 N 1.6 0.0 0.0
18:22 3.9 3.3 96 1023.6 0.0 N 1.6 0.0 0.0
18:23 3.8 3.2 96 1023.6 0.7 N 1.6 0.0 0.0
18:24 3.8 3.2 96 1023.8 0.0 N 1.6 0.0 0.0
18:26 3.8 3.2 96 1023.8 0.0 N 0.7 0.0 0.0
18:27 3.7 3.1 96 1023.7 0.7 N 0.7 0.0 0.0
18:28 3.7 3.1 96 1023.7 0.7 N 0.7 0.0 0.0
18:29 3.7 3.1 96 1023.8 0.7 N 0.7 0.0 0.0
18:31 3.6 3.0 96 1023.7 0.7 N 0.7 0.0 0.0
18:32 3.5 2.9 96 1023.9 0.7 N 0.7 0.0 0.0
18:34 3.5 2.9 96 1023.9 1.6 N 1.6 0.0 0.0
18:36 3.5 2.9 96 1023.9 0.7 N 1.6 0.0 0.0
18:37 3.5 2.9 96 1023.8 0.7 N 1.6 0.0 0.0
18:39 3.5 3.1 97 1023.8 0.7 N 1.6 0.0 0.0
18:41 3.5 3.1 97 1023.8 0.7 N 1.6 0.0 0.0
18:44 3.4 3.0 97 1023.8 0.7 N 1.6 0.0 0.0
18:46 3.5 3.1 97 1023.8 0.7 N 0.7 0.0 0.0
18:48 3.5 3.1 97 1023.7 0.7 N 1.6 0.0 0.0
18:49 3.5 3.1 97 1023.8 1.6 N 1.6 0.0 0.0
18:50 3.5 3.1 97 1023.8 0.7 N 1.6 0.0 0.0
18:52 3.5 3.1 97 1024.0 0.7 N 1.6 0.0 0.0
18:53 3.5 3.1 97 1023.9 1.6 N 1.6 0.0 0.0
18:54 3.5 3.1 97 1024.0 2.2 N 2.2 0.0 0.0
18:55 3.5 3.1 97 1024.0 1.6 N 2.2 0.0 0.0
18:56 3.5 3.2 98 1024.1 1.6 N 2.2 0.0 0.0
18:57 3.5 3.2 98 1023.9 0.7 N 2.2 0.0 0.0
18:58 3.5 3.2 98 1024.0 0.7 N 2.2 0.0 0.0
19:00 3.5 3.2 98 1024.0 0.0 N 2.2 0.0 0.0
19:02 3.5 3.2 98 1024.1 0.0 N 2.2 0.0 0.0
19:03 3.5 3.2 98 1024.1 0.0 N 2.2 0.0 0.0
19:04 3.5 3.2 98 1024.1 0.0 N 1.6 0.0 0.0
19:05 3.5 3.2 98 1023.9 0.0 N 1.6 0.0 0.0
19:07 3.5 3.2 98 1024.0 0.0 N 0.7 0.0 0.0
19:08 3.0 2.6 97 1024.0 0.0 N 0.7 0.0 0.0
19:10 3.0 2.6 97 1024.0 0.0 N 0.0 0.0 0.0
19:11 2.9 2.5 97 1024.2 0.0 N 0.0 0.0 0.0
19:13 2.8 2.4 97 1024.2 0.0 N 0.0 0.0 0.0
19:14 2.7 2.3 97 1024.2 0.0 N 0.0 0.0 0.0
19:16 2.6 2.2 97 1024.2 0.0 N 0.0 0.0 0.0
19:17 2.6 2.2 97 1024.2 0.0 N 0.0 0.0 0.0
19:19 2.5 2.1 97 1024.2 0.0 N 0.0 0.0 0.0
19:20 2.5 2.1 97 1024.3 0.0 N 0.0 0.0 0.0
19:21 2.5 2.1 97 1024.4 0.0 N 0.0 0.0 0.0
19:22 2.5 2.1 97 1024.3 0.0 N 0.0 0.0 0.0
19:24 2.4 2.0 97 1024.4 1.6 N 1.6 0.0 0.0
19:25 2.4 2.1 98 1024.2 1.6 N 1.6 0.0 0.0
19:26 2.4 2.1 98 1024.1 1.6 N 1.6 0.0 0.0
19:27 2.5 2.2 98 1024.2 1.6 N 1.6 0.0 0.0
19:28 2.5 2.2 98 1024.2 0.7 N 1.6 0.0 0.0
19:29 2.5 2.2 98 1024.3 0.7 N 1.6 0.0 0.0
19:30 2.5 2.2 98 1024.3 0.0 N 1.6 0.0 0.0
19:32 2.5 2.2 98 1024.2 0.7 N 1.6 0.0 0.0
19:33 2.5 2.2 98 1024.5 0.0 N 1.6 0.0 0.0
19:34 2.5 2.2 98 1024.3 0.0 N 1.6 0.0 0.0
19:35 2.5 2.2 98 1024.4 0.0 N 1.6 0.0 0.0
19:36 2.5 2.2 98 1024.4 0.0 N 1.6 0.0 0.0
19:38 2.4 2.1 98 1024.2 0.0 N 0.7 0.0 0.0
19:39 2.4 2.1 98 1024.4 0.7 N 0.7 0.0 0.0
19:40 2.3 2.0 98 1024.2 0.0 N 0.7 0.0 0.0
19:41 2.3 2.0 98 1024.3 1.6 N 1.6 0.0 0.0
19:42 2.3 2.0 98 1024.1 0.7 N 1.6 0.0 0.0
19:43 2.3 2.0 98 1024.2 0.7 N 1.6 0.0 0.0
19:44 2.3 2.0 98 1024.0 0.7 N 1.6 0.0 0.0
19:46 2.3 2.0 98 1024.2 0.7 N 1.6 0.0 0.0
19:47 2.3 2.0 98 1024.3 0.7 N 1.6 0.0 0.0
19:48 2.3 2.2 99 1024.3 0.0 N 1.6 0.0 0.0
19:49 2.4 2.3 99 1024.2 0.7 N 1.6 0.0 0.0
19:50 2.3 2.2 99 1024.4 0.7 N 1.6 0.0 0.0
19:51 2.3 2.2 99 1024.2 0.7 N 1.6 0.0 0.0
19:53 2.2 2.1 99 1024.3 0.7 N 0.7 0.0 0.0
19:54 2.2 2.1 99 1024.3 0.0 N 0.7 0.0 0.0
19:55 2.2 2.1 99 1024.3 0.0 N 0.7 0.0 0.0
19:56 2.2 2.1 99 1024.3 0.7 N 0.7 0.0 0.0
19:57 2.1 2.0 99 1024.3 0.7 N 0.7 0.0 0.0
19:58 2.1 2.0 99 1024.2 0.7 N 0.7 0.0 0.0
19:59 2.1 2.0 99 1024.3 0.7 N 0.7 0.0 0.0
20:01 2.1 2.0 99 1024.2 0.7 N 0.7 0.0 0.0
20:02 2.1 2.0 99 1024.2 0.7 N 0.7 0.0 0.0
20:03 2.1 2.0 99 1024.2 0.7 N 0.7 0.0 0.0
20:05 2.1 2.0 99 1024.3 0.7 N 0.7 0.0 0.0
20:07 2.1 2.0 99 1024.2 0.7 N 0.7 0.0 0.0
20:08 2.0 1.9 99 1024.2 1.6 N 1.6 0.0 0.0
20:10 2.0 1.9 99 1024.2 2.2 N 2.2 0.0 0.0
20:12 2.0 1.9 99 1024.1 2.2 N 3.1 0.0 0.0
20:13 2.0 1.9 99 1024.1 3.1 N 3.1 0.0 0.0
20:15 2.0 1.9 99 1024.3 3.1 N 3.1 0.0 0.0
20:17 1.9 1.8 99 1024.2 1.6 N 3.1 0.0 0.0
20:18 1.9 1.8 99 1024.3 0.7 N 3.1 0.0 0.0
20:20 1.9 1.8 99 1024.2 0.7 N 3.1 0.0 0.0
20:21 2.0 1.9 99 1024.2 0.7 N 3.1 0.0 0.0
20:22 2.0 1.9 99 1024.1 1.6 N 3.1 0.0 0.0
20:23 2.0 1.9 99 1024.2 1.6 N 3.1 0.0 0.0
20:24 2.1 2.0 99 1024.3 1.6 N 3.1 0.0 0.0
20:26 2.1 2.0 99 1024.1 0.7 N 1.6 0.0 0.0
20:27 2.1 2.0 99 1024.1 1.6 N 1.6 0.0 0.0
20:28 2.2 2.1 99 1024.1 0.7 N 1.6 0.0 0.0
20:29 2.2 2.1 99 1024.2 0.7 N 1.6 0.0 0.0
20:30 2.3 2.2 99 1024.2 1.6 N 1.6 0.0 0.0
20:31 2.3 2.2 99 1024.2 0.7 N 1.6 0.0 0.0
20:33 2.3 2.2 99 1024.3 0.7 N 1.6 0.0 0.0
20:34 2.2 2.1 99 1024.3 0.0 N 1.6 0.0 0.0
20:35 2.2 2.1 99 1024.0 0.7 N 1.6 0.0 0.0
20:36 2.2 2.1 99 1024.0 1.6 N 1.6 0.0 0.0
20:37 2.1 2.0 99 1024.0 1.6 N 1.6 0.0 0.0
20:38 2.1 2.0 99 1024.2 1.6 N 1.6 0.0 0.0
20:39 2.1 2.0 99 1024.2 1.6 N 1.6 0.0 0.0
20:41 2.1 2.0 99 1024.2 0.7 N 1.6 0.0 0.0
20:42 2.1 2.0 99 1024.1 0.7 N 1.6 0.0 0.0
20:43 2.2 2.1 99 1024.2 0.0 N 1.6 0.0 0.0
20:44 2.2 2.1 99 1024.2 1.6 N 1.6 0.0 0.0
20:45 2.2 2.1 99 1024.2 2.2 N 2.2 0.0 0.0
20:46 2.1 2.0 99 1024.2 3.1 N 3.1 0.0 0.0
20:47 2.1 2.0 99 1024.3 2.2 N 3.1 0.0 0.0
20:48 2.1 2.0 99 1024.2 2.2 N 3.1 0.0 0.0
20:50 2.2 2.1 99 1024.1 2.2 N 3.1 0.0 0.0
20:51 2.2 2.1 99 1024.2 1.6 N 3.1 0.0 0.0
20:52 2.2 2.1 99 1024.3 0.7 N 3.1 0.0 0.0
20:53 2.2 2.1 99 1024.1 0.7 N 3.1 0.0 0.0
20:54 2.3 2.2 99 1024.3 0.7 N 3.1 0.0 0.0
20:56 2.2 2.1 99 1024.2 0.7 N 3.1 0.0 0.0
20:57 2.2 2.1 99 1024.2 0.0 N 3.1 0.0 0.0
20:58 2.1 2.0 99 1024.2 0.0 N 2.2 0.0 0.0
21:00 2.1 2.0 99 1024.2 0.0 N 2.2 0.0 0.0
21:01 2.1 2.0 99 1024.3 0.0 N 1.6 0.0 0.0
21:02 2.1 2.0 99 1024.2 0.0 N 0.7 0.0 0.0
21:03 2.1 2.0 99 1024.2 0.0 N 0.7 0.0 0.0
21:04 2.1 2.0 99 1024.1 0.0 N 0.7 0.0 0.0
21:06 2.1 2.0 99 1024.2 0.0 N 0.0 0.0 0.0
21:07 2.1 2.0 99 1024.2 0.0 N 0.0 0.0 0.0
21:10 1.9 1.8 99 1024.2 2.2 N 2.2 0.0 0.0
21:12 2.0 1.9 99 1024.0 3.1 N 3.1 0.0 0.0
21:14 2.0 1.9 99 1024.2 2.2 N 3.1 0.0 0.0
21:16 2.1 2.0 99 1024.2 1.6 N 3.1 0.0 0.0
21:18 2.1 2.0 99 1024.2 1.6 N 3.1 0.0 0.0
21:21 2.0 1.9 99 1024.2 2.2 N 3.1 0.0 0.0
21:23 2.0 1.9 99 1024.3 3.1 N 3.1 0.0 0.0
21:25 1.9 1.8 99 1024.2 2.2 N 3.1 0.0 0.0
21:26 2.1 2.0 99 1024.3 1.6 N 3.1 0.0 0.0
21:27 1.9 1.8 99 1024.2 0.0 N 3.1 0.0 0.0
21:28 1.8 1.7 99 1024.2 0.7 N 3.1 0.0 0.0
21:30 1.9 1.8 99 1024.2 0.0 N 3.1 0.0 0.0
21:31 1.8 1.7 99 1024.5 0.0 N 3.1 0.0 0.0
21:32 1.8 1.7 99 1024.2 0.0 N 3.1 0.0 0.0
21:33 1.8 1.7 99 1024.2 1.6 N 3.1 0.0 0.0
21:34 1.7 1.6 99 1024.2 1.6 N 2.2 0.0 0.0
21:35 1.7 1.6 99 1024.2 0.0 N 1.6 0.0 0.0
21:36 1.7 1.6 99 1024.4 0.7 N 1.6 0.0 0.0
21:37 1.7 1.6 99 1024.3 0.0 N 1.6 0.0 0.0
21:39 1.7 1.6 99 1024.3 0.0 N 1.6 0.0 0.0
21:40 1.7 1.6 99 1024.4 0.0 N 1.6 0.0 0.0
21:41 1.7 1.6 99 1024.2 0.0 N 1.6 0.0 0.0
21:42 1.7 1.6 99 1024.3 0.0 N 1.6 0.0 0.0
21:43 1.7 1.6 99 1024.4 0.7 N 1.6 0.0 0.0
21:44 1.7 1.6 99 1024.3 0.0 N 1.6 0.0 0.0
21:46 1.7 1.6 99 1024.3 0.0 N 0.7 0.0 0.0
21:47 1.7 1.6 99 1024.4 0.7 N 0.7 0.0 0.0
21:48 1.7 1.6 99 1024.3 0.0 N 0.7 0.0 0.0
21:49 1.7 1.6 99 1024.4 0.0 N 0.7 0.0 0.0
21:50 1.6 1.5 99 1024.4 0.0 N 0.7 0.0 0.0
21:51 1.6 1.5 99 1024.3 0.0 N 0.7 0.0 0.0
21:53 1.6 1.5 99 1024.4 0.0 N 0.7 0.0 0.0
21:54 1.6 1.5 99 1024.4 0.0 N 0.7 0.0 0.0
21:55 1.6 1.5 99 1024.2 0.0 N 0.7 0.0 0.0
21:56 1.6 1.5 99 1024.4 0.0 N 0.7 0.0 0.0
21:57 1.6 1.5 99 1024.3 0.0 N 0.7 0.0 0.0
21:58 1.5 1.4 99 1024.5 0.0 N 0.7 0.0 0.0
21:59 1.5 1.4 99 1024.5 0.0 N 0.7 0.0 0.0
22:01 1.6 1.5 99 1024.4 0.0 N 0.0 0.0 0.0
22:02 1.6 1.5 99 1024.5 0.0 N 0.0 0.0 0.0
22:03 1.6 1.5 99 1024.4 0.0 N 0.0 0.0 0.0
22:04 1.6 1.5 99 1024.5 0.0 N 0.0 0.0 0.0
22:05 1.6 1.5 99 1024.5 0.7 N 0.7 0.0 0.0
22:06 1.6 1.5 99 1024.3 0.7 N 0.7 0.0 0.0
22:08 1.6 1.5 99 1024.4 0.7 N 0.7 0.0 0.0
22:09 1.6 1.5 99 1024.4 0.0 N 0.7 0.0 0.0
22:11 1.6 1.5 99 1024.4 0.0 N 0.7 0.0 0.0
22:12 1.6 1.5 99 1024.5 0.7 N 0.7 0.0 0.0
22:14 1.7 1.6 99 1024.4 0.7 N 0.7 0.0 0.0
22:15 1.7 1.6 99 1024.4 0.7 N 1.6 0.0 0.0
22:17 1.7 1.6 99 1024.6 0.7 N 1.6 0.0 0.0
22:19 1.7 1.6 99 1024.5 0.0 N 1.6 0.0 0.0
22:20 1.7 1.6 99 1024.6 0.0 N 1.6 0.0 0.0
22:22 1.7 1.6 99 1024.6 0.0 N 1.6 0.0 0.0
22:23 1.7 1.6 99 1024.5 0.0 N 1.6 0.0 0.0
22:24 1.7 1.6 99 1024.5 0.0 N 1.6 0.0 0.0
22:25 1.7 1.6 99 1024.4 0.0 N 0.7 0.0 0.0
22:26 1.7 1.6 99 1024.5 0.0 N 0.7 0.0 0.0
22:27 1.7 1.6 99 1024.6 0.0 N 0.7 0.0 0.0
22:28 1.7 1.6 99 1024.5 0.0 N 0.0 0.0 0.0
22:30 1.7 1.6 99 1024.7 0.0 N 0.0 0.0 0.0
22:31 1.7 1.6 99 1024.6 0.7 N 0.7 0.0 0.0
22:32 1.7 1.6 99 1024.6 0.7 N 0.7 0.0 0.0
22:33 1.7 1.6 99 1024.6 0.7 N 0.7 0.0 0.0
22:34 1.6 1.5 99 1024.4 1.6 N 1.6 0.0 0.0
22:35 1.6 1.5 99 1024.5 0.7 N 1.6 0.0 0.0
22:36 1.6 1.5 99 1024.6 0.7 N 1.6 0.0 0.0
22:37 1.6 1.5 99 1024.4 0.7 N 1.6 0.0 0.0
22:38 1.6 1.5 99 1024.5 0.7 N 1.6 0.0 0.0
22:40 1.6 1.5 99 1024.5 1.6 N 1.6 0.0 0.0
22:41 1.6 1.5 99 1024.6 1.6 N 1.6 0.0 0.0
22:42 1.6 1.5 99 1024.6 1.6 N 1.6 0.0 0.0
22:43 1.7 1.6 99 1024.4 1.6 N 2.2 0.0 0.0
22:44 1.7 1.6 99 1024.5 1.6 N 2.2 0.0 0.0
22:45 1.7 1.6 99 1024.5 2.2 N 2.2 0.0 0.0
22:47 1.7 1.6 99 1024.4 1.6 N 2.2 0.0 0.0
22:48 1.7 1.6 99 1024.4 1.6 N 2.2 0.0 0.0
22:49 1.7 1.6 99 1024.5 1.6 N 2.2 0.0 0.0
22:50 1.8 1.7 99 1024.4 1.6 N 2.2 0.0 0.0
22:51 1.8 1.7 99 1024.4 2.2 N 2.2 0.0 0.0
22:52 1.8 1.7 99 1024.3 3.1 N 3.1 0.0 0.0
22:53 1.9 1.8 99 1024.5 2.2 N 3.1 0.0 0.0
22:54 1.9 1.8 99 1024.6 1.6 N 3.1 0.0 0.0
22:56 2.0 1.9 99 1024.7 1.6 N 3.1 0.0 0.0
22:57 1.9 1.8 99 1024.6 0.7 N 3.1 0.0 0.0
22:58 2.1 2.0 99 1024.6 2.2 N 3.1 0.0 0.0
22:59 2.2 2.1 99 1024.5 2.2 N 3.1 0.0 0.0
23:00 2.2 2.1 99 1024.7 2.2 N 3.1 0.0 0.0
23:01 2.2 2.1 99 1024.6 2.2 N 3.1 0.0 0.0
23:03 2.2 2.1 99 1024.6 2.2 N 2.2 0.0 0.0
23:04 2.2 2.1 99 1024.7 2.2 N 2.2 0.0 0.0
23:05 2.2 2.1 99 1024.8 2.2 N 2.2 0.0 0.0
23:06 2.4 2.3 99 1024.6 2.2 N 2.2 0.0 0.0
23:07 2.4 2.3 99 1024.7 2.2 N 2.2 0.0 0.0
23:08 2.5 2.4 99 1024.9 1.6 N 2.2 0.0 0.0
23:10 2.5 2.4 99 1024.7 1.6 N 3.1 0.0 0.0
23:11 2.6 2.5 99 1024.8 2.2 N 3.1 0.0 0.0
23:12 2.6 2.5 99 1024.7 1.6 N 3.1 0.0 0.0
23:13 2.6 2.5 99 1024.8 2.2 N 3.1 0.0 0.0
23:14 2.7 2.6 99 1024.7 1.6 N 3.1 0.0 0.0
23:15 2.7 2.6 99 1025.0 0.7 N 3.1 0.0 0.0
23:16 2.7 2.6 99 1024.6 1.6 N 3.1 0.0 0.0
23:18 2.7 2.6 99 1024.8 1.6 N 3.1 0.0 0.0
23:19 2.7 2.6 99 1024.8 3.1 N 3.1 0.0 0.0
23:20 2.7 2.6 99 1025.0 2.2 N 3.1 0.0 0.0
23:21 2.8 2.7 99 1024.9 1.6 N 3.1 0.0 0.0
23:22 2.8 2.7 99 1024.8 2.2 N 3.1 0.0 0.0
23:23 2.8 2.7 99 1024.9 3.1 N 3.1 0.0 0.0
23:24 2.8 2.7 99 1024.8 3.8 N 3.8 0.0 0.0
23:26 2.8 2.7 99 1024.8 2.2 N 3.8 0.0 0.0
23:27 2.9 2.8 99 1024.8 2.2 N 3.8 0.0 0.0
23:28 2.9 2.8 99 1024.9 1.6 N 3.8 0.0 0.0
23:29 2.9 2.8 99 1024.9 1.6 N 3.8 0.0 0.0
23:30 2.9 2.8 99 1024.9 3.1 N 3.8 0.0 0.0
23:31 3.0 2.9 99 1024.8 2.2 N 3.8 0.0 0.0
23:33 3.1 3.0 99 1024.7 2.2 N 3.8 0.0 0.0
23:34 3.1 3.0 99 1024.8 1.6 N 3.8 0.0 0.0
23:35 3.1 3.0 99 1024.9 1.6 N 3.1 0.0 0.0
23:36 3.1 3.0 99 1024.8 1.6 N 3.1 0.0 0.0
23:37 3.2 3.1 99 1025.0 1.6 N 3.1 0.0 0.0
23:38 3.2 3.1 99 1024.8 1.6 N 3.1 0.0 0.0
23:39 3.2 3.1 99 1024.7 2.2 N 3.1 0.0 0.0
23:40 3.2 3.1 99 1024.8 3.1 N 3.1 0.0 0.0
23:41 3.3 3.2 99 1024.8 2.2 N 3.1 0.0 0.0
23:43 3.3 3.2 99 1024.9 2.2 N 3.1 0.0 0.0
23:44 3.3 3.2 99 1024.8 1.6 N 3.1 0.0 0.0
23:45 3.3 3.2 99 1024.9 2.2 N 3.1 0.0 0.0
23:46 3.4 3.3 99 1024.7 2.2 N 3.1 0.0 0.0
23:47 3.4 3.3 99 1024.8 1.6 N 3.1 0.0 0.0
23:48 3.4 3.3 99 1024.8 1.6 N 3.1 0.0 0.0
23:49 3.4 3.3 99 1024.9 1.6 N 3.1 0.0 0.0
23:50 3.4 3.3 99 1024.7 1.6 N 3.1 0.0 0.0
23:51 3.4 3.3 99 1024.9 0.7 N 2.2 0.0 0.0
23:53 3.5 3.4 99 1025.0 1.6 N 2.2 0.0 0.0
23:54 3.5 3.4 99 1025.0 2.2 N 2.2 0.0 0.0
23:55 3.5 3.4 99 1024.9 1.6 N 2.2 0.0 0.0
23:56 3.5 3.4 99 1024.9 1.6 N 2.2 0.0 0.0
23:57 3.5 3.4 99 1024.8 0.7 N 2.2 0.0 0.0
23:59 3.5 3.4 99 1024.8 0.7 N 2.2 0.0 0.0

UK - WEATHER STATION TOPSITES - UK World Weather Websites

This is a private weather station, never base important decisions or events on data from this weather station. Although every effort has been made to make the data as accurate as possible it does not meet MetOffice standards. It is proved as a guide of local weather conditions. We accept no liability for any loss which may arise from use of the data.

Copyright © Carnkie Weather 2009 - 2017.